Time,TemperatureF,DewpointF,PressureIn,WindDirection,WindDirectionDegrees,WindSpeedMPH,WindSpeedGustMPH,Humidity,HourlyPrecipIn,Conditions,Clouds,dailyrainin,SolarRadiationWatts/m^2,SoftwareType,DateUTC
2013-03-12 00:00:00,58.6,52.1,29.88,SE,139,5.0,12.0,79,0.00,,SKC,0.00,0.00,VWS V14.01,2013-03-12 04:00:00,
2013-03-12 00:05:00,58.4,52.3,29.88,SE,130,8.0,9.0,80,0.00,,SKC,0.00,0.00,VWS V14.01,2013-03-12 04:05:00,
2013-03-12 00:10:00,58.0,52.5,29.88,SE,145,7.0,11.0,82,0.00,,SKC,0.00,0.00,VWS V14.01,2013-03-12 04:10:00,
2013-03-12 00:15:00,57.8,52.7,29.88,SE,136,5.0,13.0,83,0.00,,SKC,0.00,0.00,VWS V14.01,2013-03-12 04:15:00,
2013-03-12 00:16:00,57.7,52.6,29.88,SSE,161,4.0,13.0,83,0.01,,SKC,0.01,0.00,VWS V14.01,2013-03-12 04:16:00,
2013-03-12 00:20:00,57.5,52.7,29.88,SSE,157,4.0,13.0,84,0.01,,SKC,0.01,0.00,VWS V14.01,2013-03-12 04:20:00,
2013-03-12 00:21:00,57.4,52.6,29.88,SSE,159,4.0,13.0,84,0.01,,SKC,0.01,0.00,VWS V14.01,2013-03-12 04:21:00,
2013-03-12 00:25:00,57.2,52.7,29.87,SE,135,3.0,13.0,85,0.01,,SKC,0.01,0.00,VWS V14.01,2013-03-12 04:25:00,
2013-03-12 00:26:00,57.2,52.7,29.87,SE,136,2.0,13.0,85,0.01,,SKC,0.01,0.00,VWS V14.01,2013-03-12 04:26:00,
2013-03-12 00:30:00,57.0,52.9,29.87,SE,143,1.0,13.0,86,0.02,,SKC,0.02,0.00,VWS V14.01,2013-03-12 04:30:00,
2013-03-12 00:31:00,56.9,52.8,29.87,SSE,149,2.0,13.0,86,0.02,,SKC,0.02,0.00,VWS V14.01,2013-03-12 04:31:00,
2013-03-12 00:35:00,56.7,52.9,29.87,SSE,152,3.0,6.0,87,0.02,,SKC,0.02,0.00,VWS V14.01,2013-03-12 04:35:00,
2013-03-12 00:36:00,56.7,52.9,29.87,South,171,2.0,6.0,87,0.02,,SKC,0.02,0.00,VWS V14.01,2013-03-12 04:36:00,
2013-03-12 00:37:00,56.6,52.8,29.87,South,175,2.0,6.0,87,0.02,,SKC,0.02,0.00,VWS V14.01,2013-03-12 04:37:00,
2013-03-12 00:40:00,56.4,52.9,29.87,South,191,2.0,6.0,88,0.02,,SKC,0.02,0.00,VWS V14.01,2013-03-12 04:40:00,
2013-03-12 00:42:00,56.4,52.9,29.87,SSW,193,0.0,6.0,88,0.02,,SKC,0.02,0.00,VWS V14.01,2013-03-12 04:42:00,
2013-03-12 00:45:00,56.2,52.7,29.87,South,180,3.0,6.0,88,0.02,,SKC,0.02,0.00,VWS V14.01,2013-03-12 04:45:00,
2013-03-12 00:47:00,56.2,53.0,29.87,SW,226,1.0,6.0,89,0.02,,SKC,0.02,0.00,VWS V14.01,2013-03-12 04:47:00,
2013-03-12 00:51:00,56.1,52.9,29.87,SSE,154,3.0,6.0,89,0.03,,SKC,0.03,0.00,VWS V14.01,2013-03-12 04:51:00,
2013-03-12 00:52:00,56.1,52.9,29.87,SSE,149,0.0,6.0,89,0.03,,SKC,0.03,0.00,VWS V14.01,2013-03-12 04:52:00,
2013-03-12 00:56:00,56.0,53.1,29.87,SSW,197,0.0,6.0,90,0.03,,SKC,0.03,0.00,VWS V14.01,2013-03-12 04:56:00,
2013-03-12 00:57:00,56.0,53.1,29.87,SSW,197,0.0,6.0,90,0.03,,SKC,0.03,0.00,VWS V14.01,2013-03-12 04:57:00,
2013-03-12 01:02:00,55.8,52.9,29.87,SSE,153,1.0,5.0,90,0.03,,SKC,0.03,0.00,VWS V14.01,2013-03-12 05:02:00,
2013-03-12 01:03:00,55.8,52.9,29.87,SSE,153,1.0,5.0,90,0.03,,SKC,0.03,0.00,VWS V14.01,2013-03-12 05:03:00,
2013-03-12 01:07:00,55.7,53.1,29.87,South,188,1.0,5.0,91,0.04,,SKC,0.04,0.00,VWS V14.01,2013-03-12 05:07:00,
2013-03-12 01:08:00,55.7,53.1,29.87,South,188,1.0,5.0,91,0.04,,SKC,0.04,0.00,VWS V14.01,2013-03-12 05:08:00,
2013-03-12 01:12:00,55.7,53.1,29.87,South,169,2.0,5.0,91,0.04,,SKC,0.04,0.00,VWS V14.01,2013-03-12 05:12:00,
2013-03-12 01:13:00,55.6,53.0,29.87,South,169,2.0,5.0,91,0.04,,SKC,0.04,0.00,VWS V14.01,2013-03-12 05:13:00,
2013-03-12 01:17:00,55.5,52.9,29.86,SSE,153,2.0,5.0,91,0.04,,SKC,0.04,0.00,VWS V14.01,2013-03-12 05:17:00,
2013-03-12 01:18:00,55.5,53.2,29.86,SSW,192,4.0,5.0,92,0.04,,SKC,0.04,0.00,VWS V14.01,2013-03-12 05:18:00,
2013-03-12 01:22:00,55.5,53.2,29.86,SSE,152,0.0,5.0,92,0.04,,SKC,0.04,0.00,VWS V14.01,2013-03-12 05:22:00,
2013-03-12 01:23:00,55.5,53.2,29.86,SSE,153,0.0,5.0,92,0.04,,SKC,0.04,0.00,VWS V14.01,2013-03-12 05:23:00,
2013-03-12 01:27:00,55.4,53.1,29.86,SE,126,2.0,5.0,92,0.05,,SKC,0.05,0.00,VWS V14.01,2013-03-12 05:27:00,
2013-03-12 01:28:00,55.4,53.1,29.86,SE,126,2.0,5.0,92,0.05,,SKC,0.05,0.00,VWS V14.01,2013-03-12 05:28:00,
2013-03-12 01:32:00,55.3,53.0,29.86,South,178,3.0,4.0,92,0.04,,SKC,0.06,0.00,VWS V14.01,2013-03-12 05:32:00,
2013-03-12 01:33:00,55.3,53.0,29.86,South,178,1.0,4.0,92,0.04,,SKC,0.06,0.00,VWS V14.01,2013-03-12 05:33:00,
2013-03-12 01:34:00,55.2,52.9,29.86,South,178,1.0,4.0,92,0.04,,SKC,0.06,0.00,VWS V14.01,2013-03-12 05:34:00,
2013-03-12 01:37:00,55.2,53.2,29.86,SSE,162,0.0,5.0,93,0.04,,SKC,0.06,0.00,VWS V14.01,2013-03-12 05:37:00,
2013-03-12 01:38:00,55.2,53.2,29.86,SSE,163,1.0,5.0,93,0.04,,SKC,0.06,0.00,VWS V14.01,2013-03-12 05:38:00,
2013-03-12 01:39:00,55.2,53.2,29.86,SSE,163,1.0,5.0,93,0.04,,SKC,0.06,0.00,VWS V14.01,2013-03-12 05:39:00,
2013-03-12 01:42:00,55.1,53.1,29.85,SSE,166,0.0,5.0,93,0.04,,SKC,0.06,0.00,VWS V14.01,2013-03-12 05:42:00,
2013-03-12 01:43:00,55.1,53.1,29.86,SSE,166,0.0,5.0,93,0.04,,SKC,0.06,0.00,VWS V14.01,2013-03-12 05:43:00,
2013-03-12 01:44:00,55.1,53.1,29.86,SSE,166,1.0,5.0,93,0.04,,SKC,0.06,0.00,VWS V14.01,2013-03-12 05:44:00,
2013-03-12 01:47:00,55.1,53.1,29.85,SSE,153,0.0,5.0,93,0.05,,SKC,0.07,0.00,VWS V14.01,2013-03-12 05:47:00,
2013-03-12 01:49:00,55.1,53.1,29.85,SSE,153,0.0,5.0,93,0.05,,SKC,0.07,0.00,VWS V14.01,2013-03-12 05:49:00,
2013-03-12 01:53:00,55.0,53.0,29.85,SSE,153,0.0,5.0,93,0.05,,SKC,0.07,0.00,VWS V14.01,2013-03-12 05:53:00,
2013-03-12 01:54:00,55.0,53.0,29.85,SSE,153,0.0,5.0,93,0.05,,SKC,0.07,0.00,VWS V14.01,2013-03-12 05:54:00,
2013-03-12 01:58:00,55.0,53.0,29.85,SSE,153,0.0,5.0,93,0.05,,SKC,0.07,0.00,VWS V14.01,2013-03-12 05:58:00,
2013-03-12 01:59:00,55.0,53.0,29.85,SSE,153,0.0,5.0,93,0.05,,SKC,0.07,0.00,VWS V14.01,2013-03-12 05:59:00,
2013-03-12 02:03:00,54.9,53.2,29.85,SSE,165,1.0,3.0,94,0.04,,SKC,0.07,0.00,VWS V14.01,2013-03-12 06:03:00,
2013-03-12 02:04:00,54.9,53.2,29.85,SSW,194,3.0,3.0,94,0.04,,SKC,0.07,0.00,VWS V14.01,2013-03-12 06:04:00,
2013-03-12 02:05:00,55.0,53.3,29.85,SSW,204,2.0,3.0,94,0.04,,SKC,0.07,0.00,VWS V14.01,2013-03-12 06:05:00,
2013-03-12 02:08:00,54.9,53.2,29.85,SSW,203,3.0,4.0,94,0.04,,SKC,0.07,0.00,VWS V14.01,2013-03-12 06:08:00,
2013-03-12 02:09:00,54.9,53.2,29.85,SSW,208,2.0,4.0,94,0.04,,SKC,0.07,0.00,VWS V14.01,2013-03-12 06:09:00,
2013-03-12 02:10:00,55.0,53.3,29.85,SSW,208,2.0,4.0,94,0.05,,SKC,0.08,0.00,VWS V14.01,2013-03-12 06:10:00,
2013-03-12 02:14:00,55.0,53.3,29.85,SE,142,1.0,4.0,94,0.05,,SKC,0.08,0.00,VWS V14.01,2013-03-12 06:14:00,
2013-03-12 02:16:00,55.0,53.3,29.85,SSE,150,1.0,4.0,94,0.05,,SKC,0.08,0.00,VWS V14.01,2013-03-12 06:16:00,
2013-03-12 02:19:00,55.0,53.6,29.85,SSE,150,0.0,4.0,95,0.05,,SKC,0.08,0.00,VWS V14.01,2013-03-12 06:19:00,
2013-03-12 02:21:00,55.0,53.6,29.85,SSE,150,0.0,4.0,95,0.05,,SKC,0.08,0.00,VWS V14.01,2013-03-12 06:21:00,
2013-03-12 02:24:00,54.9,53.5,29.85,SSE,150,0.0,4.0,95,0.05,,SKC,0.08,0.00,VWS V14.01,2013-03-12 06:24:00,
2013-03-12 02:25:00,54.9,53.5,29.85,SSE,150,0.0,4.0,95,0.05,,SKC,0.08,0.00,VWS V14.01,2013-03-12 06:25:00,
2013-03-12 02:27:00,54.9,53.5,29.85,SSE,150,0.0,4.0,95,0.05,,SKC,0.08,0.00,VWS V14.01,2013-03-12 06:27:00,
2013-03-12 02:29:00,54.9,53.2,29.84,SSE,150,0.0,4.0,94,0.05,,SKC,0.08,0.00,VWS V14.01,2013-03-12 06:29:00,
2013-03-12 02:30:00,54.9,53.2,29.84,SSE,150,0.0,4.0,94,0.05,,SKC,0.08,0.00,VWS V14.01,2013-03-12 06:30:00,
2013-03-12 02:32:00,54.9,53.2,29.84,SSE,150,0.0,0.0,94,0.03,,SKC,0.08,0.00,VWS V14.01,2013-03-12 06:32:00,
2013-03-12 02:34:00,54.9,53.2,29.84,SSE,150,0.0,0.0,94,0.03,,SKC,0.08,0.00,VWS V14.01,2013-03-12 06:34:00,
2013-03-12 02:35:00,54.9,53.2,29.84,SSE,150,0.0,0.0,94,0.03,,SKC,0.08,0.00,VWS V14.01,2013-03-12 06:35:00,
2013-03-12 02:37:00,54.9,53.2,29.84,SSE,150,0.0,0.0,94,0.04,,SKC,0.09,0.00,VWS V14.01,2013-03-12 06:37:00,
2013-03-12 02:39:00,54.8,53.1,29.83,SSE,150,0.0,0.0,94,0.05,,SKC,0.10,0.00,VWS V14.01,2013-03-12 06:39:00,
2013-03-12 02:40:00,54.8,53.1,29.83,SSE,150,0.0,0.0,94,0.05,,SKC,0.10,0.00,VWS V14.01,2013-03-12 06:40:00,
2013-03-12 02:41:00,54.8,53.4,29.83,SSE,150,0.0,0.0,95,0.05,,SKC,0.10,0.00,VWS V14.01,2013-03-12 06:41:00,
2013-03-12 02:42:00,54.8,53.4,29.83,SSE,150,0.0,0.0,95,0.05,,SKC,0.10,0.00,VWS V14.01,2013-03-12 06:42:00,
2013-03-12 02:44:00,54.8,53.4,29.84,SSE,150,0.0,0.0,95,0.06,,SKC,0.11,0.00,VWS V14.01,2013-03-12 06:44:00,
2013-03-12 02:45:00,54.8,53.4,29.83,SSE,150,0.0,0.0,95,0.06,,SKC,0.11,0.00,VWS V14.01,2013-03-12 06:45:00,
2013-03-12 02:46:00,54.8,53.4,29.83,SSE,150,0.0,0.0,95,0.06,,SKC,0.11,0.00,VWS V14.01,2013-03-12 06:46:00,
2013-03-12 02:47:00,54.8,53.4,29.83,SSE,150,1.0,1.0,95,0.07,,SKC,0.12,0.00,VWS V14.01,2013-03-12 06:47:00,
2013-03-12 02:49:00,54.8,53.4,29.83,SE,136,1.0,8.0,95,0.07,,SKC,0.12,0.00,VWS V14.01,2013-03-12 06:49:00,
2013-03-12 02:50:00,54.8,53.4,29.83,SE,139,0.0,8.0,95,0.07,,SKC,0.12,0.00,VWS V14.01,2013-03-12 06:50:00,
2013-03-12 02:51:00,54.8,53.4,29.83,SE,140,0.0,8.0,95,0.07,,SKC,0.12,0.00,VWS V14.01,2013-03-12 06:51:00,
2013-03-12 02:52:00,54.8,53.4,29.83,SE,139,1.0,8.0,95,0.07,,SKC,0.12,0.00,VWS V14.01,2013-03-12 06:52:00,
2013-03-12 02:55:00,54.8,53.4,29.83,SE,139,1.0,8.0,95,0.08,,SKC,0.13,0.00,VWS V14.01,2013-03-12 06:55:00,
2013-03-12 02:56:00,54.8,53.4,29.83,SE,139,0.0,8.0,95,0.08,,SKC,0.13,0.00,VWS V14.01,2013-03-12 06:56:00,
2013-03-12 02:57:00,54.8,53.4,29.83,SW,225,0.0,8.0,95,0.08,,SKC,0.13,0.00,VWS V14.01,2013-03-12 06:57:00,
2013-03-12 03:00:00,54.8,53.4,29.83,East,93,1.0,8.0,95,0.08,,SKC,0.13,0.00,VWS V14.01,2013-03-12 07:00:00,
2013-03-12 03:01:00,54.8,53.4,29.83,SE,124,2.0,2.0,95,0.07,,SKC,0.14,0.00,VWS V14.01,2013-03-12 07:01:00,
2013-03-12 03:02:00,54.7,53.3,29.83,SE,124,1.0,2.0,95,0.07,,SKC,0.14,0.00,VWS V14.01,2013-03-12 07:02:00,
2013-03-12 03:05:00,54.7,53.3,29.82,SE,124,1.0,2.0,95,0.07,,SKC,0.14,0.00,VWS V14.01,2013-03-12 07:05:00,
2013-03-12 03:06:00,54.7,53.3,29.82,ESE,123,2.0,2.0,95,0.08,,SKC,0.15,0.00,VWS V14.01,2013-03-12 07:06:00,
2013-03-12 03:07:00,54.7,53.3,29.82,SE,124,0.0,4.0,95,0.08,,SKC,0.15,0.00,VWS V14.01,2013-03-12 07:07:00,
2013-03-12 03:10:00,54.7,53.3,29.82,SE,124,0.0,4.0,95,0.09,,SKC,0.16,0.00,VWS V14.01,2013-03-12 07:10:00,
2013-03-12 03:12:00,54.7,53.3,29.82,SE,124,0.0,4.0,95,0.09,,SKC,0.16,0.00,VWS V14.01,2013-03-12 07:12:00,
2013-03-12 03:15:00,54.6,53.2,29.82,SE,124,0.0,4.0,95,0.10,,SKC,0.17,0.00,VWS V14.01,2013-03-12 07:15:00,
2013-03-12 03:17:00,54.6,53.2,29.82,SE,124,0.0,4.0,95,0.10,,SKC,0.17,0.00,VWS V14.01,2013-03-12 07:17:00,
2013-03-12 03:18:00,54.6,53.5,29.82,SE,124,0.0,4.0,96,0.10,,SKC,0.17,0.00,VWS V14.01,2013-03-12 07:18:00,
2013-03-12 03:21:00,54.6,53.5,29.82,SE,124,0.0,4.0,96,0.11,,SKC,0.18,0.00,VWS V14.01,2013-03-12 07:21:00,
2013-03-12 03:22:00,54.6,53.5,29.81,SE,124,0.0,4.0,96,0.12,,SKC,0.19,0.00,VWS V14.01,2013-03-12 07:22:00,
2013-03-12 03:23:00,54.6,53.5,29.81,SE,124,0.0,4.0,96,0.12,,SKC,0.19,0.00,VWS V14.01,2013-03-12 07:23:00,
2013-03-12 03:26:00,54.6,53.5,29.82,SE,124,0.0,4.0,96,0.13,,SKC,0.20,0.00,VWS V14.01,2013-03-12 07:26:00,
2013-03-12 03:27:00,54.6,53.5,29.81,SE,124,0.0,4.0,96,0.14,,SKC,0.21,0.00,VWS V14.01,2013-03-12 07:27:00,
2013-03-12 03:28:00,54.6,53.5,29.81,SE,124,0.0,4.0,96,0.14,,SKC,0.21,0.00,VWS V14.01,2013-03-12 07:28:00,
2013-03-12 03:31:00,54.6,53.5,29.81,SE,124,0.0,4.0,96,0.15,,SKC,0.22,0.00,VWS V14.01,2013-03-12 07:31:00,
2013-03-12 03:32:00,54.6,53.5,29.81,SE,124,0.0,0.0,96,0.14,,SKC,0.22,0.00,VWS V14.01,2013-03-12 07:32:00,
2013-03-12 03:33:00,54.6,53.5,29.81,SE,124,0.0,0.0,96,0.14,,SKC,0.22,0.00,VWS V14.01,2013-03-12 07:33:00,
2013-03-12 03:36:00,54.6,53.5,29.80,SE,124,0.0,0.0,96,0.15,,SKC,0.23,0.00,VWS V14.01,2013-03-12 07:36:00,
2013-03-12 03:37:00,54.6,53.5,29.80,SE,124,0.0,0.0,96,0.16,,SKC,0.24,0.00,VWS V14.01,2013-03-12 07:37:00,
2013-03-12 03:38:00,54.6,53.5,29.80,SE,124,0.0,0.0,96,0.16,,SKC,0.24,0.00,VWS V14.01,2013-03-12 07:38:00,
2013-03-12 03:39:00,54.5,53.4,29.80,SE,124,0.0,0.0,96,0.17,,SKC,0.25,0.00,VWS V14.01,2013-03-12 07:39:00,
2013-03-12 03:41:00,54.6,53.5,29.80,SE,124,0.0,1.0,96,0.18,,SKC,0.26,0.00,VWS V14.01,2013-03-12 07:41:00,
2013-03-12 03:43:00,54.5,53.4,29.80,SE,124,0.0,1.0,96,0.20,,SKC,0.28,0.00,VWS V14.01,2013-03-12 07:43:00,
2013-03-12 03:44:00,54.5,53.4,29.80,SE,124,0.0,1.0,96,0.21,,SKC,0.29,0.00,VWS V14.01,2013-03-12 07:44:00,
2013-03-12 03:47:00,54.5,53.4,29.80,SE,124,1.0,1.0,96,0.22,,SKC,0.30,0.00,VWS V14.01,2013-03-12 07:47:00,
2013-03-12 03:48:00,54.5,53.4,29.80,SE,124,0.0,1.0,96,0.23,,SKC,0.31,0.00,VWS V14.01,2013-03-12 07:48:00,
2013-03-12 03:50:00,54.5,53.4,29.80,SE,124,1.0,1.0,96,0.24,,SKC,0.32,0.00,VWS V14.01,2013-03-12 07:50:00,
2013-03-12 03:52:00,54.5,53.4,29.80,SE,124,0.0,2.0,96,0.24,,SKC,0.32,0.00,VWS V14.01,2013-03-12 07:52:00,
2013-03-12 03:53:00,54.5,53.4,29.79,SE,124,0.0,2.0,96,0.25,,SKC,0.33,0.00,VWS V14.01,2013-03-12 07:53:00,
2013-03-12 03:55:00,54.5,53.4,29.79,SE,124,0.0,2.0,96,0.26,,SKC,0.34,0.00,VWS V14.01,2013-03-12 07:55:00,
2013-03-12 03:57:00,54.5,53.4,29.79,SE,124,0.0,2.0,96,0.27,,SKC,0.35,0.00,VWS V14.01,2013-03-12 07:57:00,
2013-03-12 03:58:00,54.5,53.4,29.79,SE,124,0.0,2.0,96,0.27,,SKC,0.35,0.00,VWS V14.01,2013-03-12 07:58:00,
2013-03-12 04:00:00,54.5,53.4,29.79,SE,124,0.0,2.0,96,0.28,,SKC,0.36,0.00,VWS V14.01,2013-03-12 08:00:00,
2013-03-12 04:02:00,54.5,53.4,29.79,SE,124,0.0,0.0,96,0.23,,SKC,0.36,0.00,VWS V14.01,2013-03-12 08:02:00,
2013-03-12 04:03:00,54.4,53.3,29.79,SE,124,0.0,0.0,96,0.24,,SKC,0.37,0.00,VWS V14.01,2013-03-12 08:03:00,
2013-03-12 04:04:00,54.5,53.4,29.79,SE,124,0.0,0.0,96,0.24,,SKC,0.37,0.00,VWS V14.01,2013-03-12 08:04:00,
2013-03-12 04:05:00,54.4,53.3,29.78,SE,124,2.0,2.0,96,0.24,,SKC,0.37,0.00,VWS V14.01,2013-03-12 08:05:00,
2013-03-12 04:07:00,54.4,53.3,29.78,SE,124,0.0,2.0,96,0.25,,SKC,0.38,0.00,VWS V14.01,2013-03-12 08:07:00,
2013-03-12 04:08:00,54.4,53.3,29.78,SE,124,0.0,2.0,96,0.25,,SKC,0.38,0.00,VWS V14.01,2013-03-12 08:08:00,
2013-03-12 04:09:00,54.4,53.3,29.78,SE,124,1.0,2.0,96,0.25,,SKC,0.38,0.00,VWS V14.01,2013-03-12 08:09:00,
2013-03-12 04:10:00,54.4,53.3,29.78,SE,124,0.0,2.0,96,0.25,,SKC,0.38,0.00,VWS V14.01,2013-03-12 08:10:00,
2013-03-12 04:12:00,54.4,53.3,29.78,SE,124,0.0,2.0,96,0.26,,SKC,0.39,0.00,VWS V14.01,2013-03-12 08:12:00,
2013-03-12 04:13:00,54.4,53.3,29.78,SE,124,0.0,2.0,96,0.26,,SKC,0.39,0.00,VWS V14.01,2013-03-12 08:13:00,
2013-03-12 04:14:00,54.4,53.3,29.78,SE,124,0.0,2.0,96,0.26,,SKC,0.39,0.00,VWS V14.01,2013-03-12 08:14:00,
2013-03-12 04:15:00,54.4,53.3,29.78,SE,124,0.0,2.0,96,0.26,,SKC,0.39,0.00,VWS V14.01,2013-03-12 08:15:00,
2013-03-12 04:17:00,54.4,53.3,29.78,SE,124,2.0,2.0,96,0.27,,SKC,0.40,0.00,VWS V14.01,2013-03-12 08:17:00,
2013-03-12 04:18:00,54.4,53.3,29.78,SE,124,0.0,2.0,96,0.27,,SKC,0.40,0.00,VWS V14.01,2013-03-12 08:18:00,
2013-03-12 04:19:00,54.4,53.3,29.78,SE,124,0.0,2.0,96,0.27,,SKC,0.40,0.00,VWS V14.01,2013-03-12 08:19:00,
2013-03-12 04:21:00,54.4,53.3,29.78,SE,124,0.0,2.0,96,0.27,,SKC,0.40,0.00,VWS V14.01,2013-03-12 08:21:00,
2013-03-12 04:22:00,54.4,53.3,29.78,SE,124,0.0,2.0,96,0.28,,SKC,0.41,0.00,VWS V14.01,2013-03-12 08:22:00,
2013-03-12 04:24:00,54.4,53.6,29.78,SE,124,0.0,2.0,97,0.28,,SKC,0.41,0.00,VWS V14.01,2013-03-12 08:24:00,
2013-03-12 04:26:00,54.4,53.6,29.77,SE,124,0.0,2.0,97,0.30,,SKC,0.43,0.00,VWS V14.01,2013-03-12 08:26:00,
2013-03-12 04:28:00,54.4,53.6,29.77,SE,124,0.0,2.0,97,0.31,,SKC,0.44,0.00,VWS V14.01,2013-03-12 08:28:00,
2013-03-12 04:29:00,54.4,53.6,29.77,SE,124,0.0,2.0,97,0.31,,SKC,0.44,0.00,VWS V14.01,2013-03-12 08:29:00,
2013-03-12 04:32:00,54.4,53.3,29.77,SE,124,0.0,0.0,96,0.23,,SKC,0.45,0.00,VWS V14.01,2013-03-12 08:32:00,
2013-03-12 04:33:00,54.4,53.3,29.77,SE,124,0.0,0.0,96,0.24,,SKC,0.46,0.00,VWS V14.01,2013-03-12 08:33:00,
2013-03-12 04:34:00,54.4,53.6,29.77,SE,124,0.0,0.0,97,0.24,,SKC,0.46,0.00,VWS V14.01,2013-03-12 08:34:00,
2013-03-12 04:37:00,54.3,53.5,29.77,SE,124,0.0,0.0,97,0.26,,SKC,0.48,0.00,VWS V14.01,2013-03-12 08:37:00,
2013-03-12 04:38:00,54.3,53.5,29.77,SE,124,0.0,0.0,97,0.26,,SKC,0.48,0.00,VWS V14.01,2013-03-12 08:38:00,
2013-03-12 04:39:00,54.3,53.5,29.77,SE,124,0.0,0.0,97,0.26,,SKC,0.48,0.00,VWS V14.01,2013-03-12 08:39:00,
2013-03-12 04:42:00,54.3,53.5,29.77,SE,124,1.0,1.0,97,0.28,,SKC,0.50,0.00,VWS V14.01,2013-03-12 08:42:00,
2013-03-12 04:43:00,54.3,53.5,29.77,SE,124,0.0,1.0,97,0.28,,SKC,0.50,0.00,VWS V14.01,2013-03-12 08:43:00,
2013-03-12 04:44:00,54.3,53.5,29.77,SE,124,0.0,1.0,97,0.29,,SKC,0.51,0.00,VWS V14.01,2013-03-12 08:44:00,
2013-03-12 04:47:00,54.3,53.5,29.76,SE,124,1.0,1.0,97,0.32,,SKC,0.54,0.00,VWS V14.01,2013-03-12 08:47:00,
2013-03-12 04:48:00,54.3,53.5,29.76,SE,124,1.0,1.0,97,0.32,,SKC,0.54,0.00,VWS V14.01,2013-03-12 08:48:00,
2013-03-12 04:49:00,54.3,53.5,29.76,SE,124,0.0,1.0,97,0.32,,SKC,0.54,0.00,VWS V14.01,2013-03-12 08:49:00,
2013-03-12 04:50:00,54.3,53.5,29.76,SE,124,0.0,2.0,97,0.33,,SKC,0.55,0.00,VWS V14.01,2013-03-12 08:50:00,
2013-03-12 04:52:00,54.2,53.4,29.75,SE,124,0.0,2.0,97,0.34,,SKC,0.56,0.00,VWS V14.01,2013-03-12 08:52:00,
2013-03-12 04:53:00,54.2,53.4,29.75,ENE,73,1.0,2.0,97,0.34,,SKC,0.56,0.00,VWS V14.01,2013-03-12 08:53:00,
2013-03-12 04:54:00,54.2,53.4,29.75,East,82,3.0,5.0,97,0.35,,SKC,0.57,0.00,VWS V14.01,2013-03-12 08:54:00,
2013-03-12 04:55:00,54.2,53.4,29.75,ENE,69,1.0,5.0,97,0.35,,SKC,0.57,0.00,VWS V14.01,2013-03-12 08:55:00,
2013-03-12 04:58:00,54.2,53.4,29.75,ENE,71,0.0,5.0,97,0.36,,SKC,0.58,0.00,VWS V14.01,2013-03-12 08:58:00,
2013-03-12 04:59:00,54.2,53.4,29.75,ENE,72,0.0,5.0,97,0.36,,SKC,0.58,0.00,VWS V14.01,2013-03-12 08:59:00,
2013-03-12 05:00:00,54.2,53.4,29.75,ENE,72,1.0,5.0,97,0.37,,SKC,0.59,0.00,VWS V14.01,2013-03-12 09:00:00,
2013-03-12 05:03:00,54.3,53.5,29.75,ENE,72,0.0,0.0,97,0.23,,SKC,0.59,0.00,VWS V14.01,2013-03-12 09:03:00,
2013-03-12 05:04:00,54.3,53.5,29.75,ENE,72,1.0,1.0,97,0.24,,SKC,0.60,0.00,VWS V14.01,2013-03-12 09:04:00,
2013-03-12 05:05:00,54.3,53.5,29.75,ENE,72,1.0,2.0,97,0.24,,SKC,0.60,0.00,VWS V14.01,2013-03-12 09:05:00,
2013-03-12 05:08:00,54.3,53.5,29.75,ENE,71,0.0,2.0,97,0.24,,SKC,0.60,0.00,VWS V14.01,2013-03-12 09:08:00,
2013-03-12 05:09:00,54.3,53.5,29.75,ENE,71,2.0,2.0,97,0.24,,SKC,0.60,0.00,VWS V14.01,2013-03-12 09:09:00,
2013-03-12 05:10:00,54.3,53.5,29.75,ENE,71,1.0,2.0,97,0.24,,SKC,0.60,0.00,VWS V14.01,2013-03-12 09:10:00,
2013-03-12 05:13:00,54.3,53.5,29.75,ENE,71,1.0,2.0,97,0.24,,SKC,0.60,0.00,VWS V14.01,2013-03-12 09:13:00,
2013-03-12 05:14:00,54.2,53.4,29.75,ENE,71,1.0,2.0,97,0.25,,SKC,0.61,0.00,VWS V14.01,2013-03-12 09:14:00,
2013-03-12 05:15:00,54.2,53.4,29.74,ENE,72,0.0,2.0,97,0.25,,SKC,0.61,0.00,VWS V14.01,2013-03-12 09:15:00,
2013-03-12 05:17:00,54.2,53.4,29.74,ENE,71,0.0,2.0,97,0.25,,SKC,0.61,0.00,VWS V14.01,2013-03-12 09:17:00,
2013-03-12 05:18:00,54.2,53.4,29.75,ENE,72,0.0,2.0,97,0.25,,SKC,0.61,0.00,VWS V14.01,2013-03-12 09:18:00,
2013-03-12 05:19:00,54.2,53.4,29.75,ENE,71,1.0,2.0,97,0.25,,SKC,0.61,0.00,VWS V14.01,2013-03-12 09:19:00,
2013-03-12 05:20:00,54.2,53.4,29.75,ENE,71,0.0,2.0,97,0.25,,SKC,0.61,0.00,VWS V14.01,2013-03-12 09:20:00,
2013-03-12 05:22:00,54.2,53.4,29.74,ENE,75,0.0,3.0,97,0.25,,SKC,0.61,0.00,VWS V14.01,2013-03-12 09:22:00,
2013-03-12 05:23:00,54.2,53.4,29.74,ENE,75,3.0,3.0,97,0.26,,SKC,0.62,0.00,VWS V14.01,2013-03-12 09:23:00,
2013-03-12 05:24:00,54.2,53.4,29.74,ENE,75,0.0,3.0,97,0.26,,SKC,0.62,0.00,VWS V14.01,2013-03-12 09:24:00,
2013-03-12 05:25:00,54.2,53.4,29.74,ENE,75,1.0,3.0,97,0.26,,SKC,0.62,0.00,VWS V14.01,2013-03-12 09:25:00,
2013-03-12 05:27:00,54.2,53.4,29.74,ENE,75,0.0,3.0,97,0.27,,SKC,0.63,0.00,VWS V14.01,2013-03-12 09:27:00,
2013-03-12 05:28:00,54.2,53.4,29.74,ENE,75,0.0,3.0,97,0.27,,SKC,0.63,0.00,VWS V14.01,2013-03-12 09:28:00,
2013-03-12 05:30:00,54.2,53.4,29.74,ENE,75,0.0,3.0,97,0.28,,SKC,0.64,0.00,VWS V14.01,2013-03-12 09:30:00,
2013-03-12 05:32:00,54.2,53.4,29.74,ENE,75,0.0,0.0,97,0.20,,SKC,0.64,0.00,VWS V14.01,2013-03-12 09:32:00,
2013-03-12 05:34:00,54.2,53.4,29.74,ENE,75,0.0,0.0,97,0.21,,SKC,0.65,0.00,VWS V14.01,2013-03-12 09:34:00,
2013-03-12 05:35:00,54.2,53.4,29.74,ENE,75,0.0,0.0,97,0.21,,SKC,0.65,0.00,VWS V14.01,2013-03-12 09:35:00,
2013-03-12 05:37:00,54.2,53.4,29.74,ENE,75,0.0,0.0,97,0.22,,SKC,0.66,0.00,VWS V14.01,2013-03-12 09:37:00,
2013-03-12 05:39:00,54.2,53.4,29.74,ENE,75,0.0,0.0,97,0.22,,SKC,0.66,0.00,VWS V14.01,2013-03-12 09:39:00,
2013-03-12 05:40:00,54.2,53.4,29.74,ENE,75,0.0,0.0,97,0.22,,SKC,0.66,0.00,VWS V14.01,2013-03-12 09:40:00,
2013-03-12 05:41:00,54.2,53.4,29.74,ENE,75,0.0,0.0,97,0.22,,SKC,0.66,0.00,VWS V14.01,2013-03-12 09:41:00,
2013-03-12 05:42:00,54.1,53.3,29.74,ENE,75,0.0,1.0,97,0.22,,SKC,0.66,0.00,VWS V14.01,2013-03-12 09:42:00,
2013-03-12 05:44:00,54.1,53.3,29.74,NW,321,1.0,2.0,97,0.23,,SKC,0.67,0.00,VWS V14.01,2013-03-12 09:44:00,
2013-03-12 05:45:00,54.1,53.3,29.74,NW,321,1.0,2.0,97,0.23,,SKC,0.67,0.00,VWS V14.01,2013-03-12 09:45:00,
2013-03-12 05:46:00,54.1,53.3,29.74,NW,321,0.0,2.0,97,0.23,,SKC,0.67,0.00,VWS V14.01,2013-03-12 09:46:00,
2013-03-12 05:47:00,54.1,53.3,29.74,NW,321,1.0,2.0,97,0.23,,SKC,0.67,0.00,VWS V14.01,2013-03-12 09:47:00,
2013-03-12 05:50:00,54.1,53.3,29.74,NW,321,0.0,2.0,97,0.24,,SKC,0.68,0.00,VWS V14.01,2013-03-12 09:50:00,
2013-03-12 05:51:00,54.1,53.3,29.73,NW,321,0.0,2.0,97,0.24,,SKC,0.68,0.00,VWS V14.01,2013-03-12 09:51:00,
2013-03-12 05:53:00,54.1,53.3,29.74,NW,321,0.0,2.0,97,0.24,,SKC,0.68,0.00,VWS V14.01,2013-03-12 09:53:00,
2013-03-12 05:55:00,54.1,53.3,29.74,NW,321,0.0,2.0,97,0.25,,SKC,0.69,0.00,VWS V14.01,2013-03-12 09:55:00,
2013-03-12 05:57:00,54.1,53.3,29.73,NW,321,0.0,2.0,97,0.25,,SKC,0.69,0.00,VWS V14.01,2013-03-12 09:57:00,
2013-03-12 05:58:00,54.1,53.3,29.73,NW,321,0.0,2.0,97,0.25,,SKC,0.69,0.00,VWS V14.01,2013-03-12 09:58:00,
2013-03-12 06:00:00,54.1,53.3,29.73,NW,321,0.0,2.0,97,0.25,,SKC,0.69,0.00,VWS V14.01,2013-03-12 10:00:00,
2013-03-12 06:02:00,54.1,53.3,29.73,NW,321,0.0,0.0,97,0.11,,SKC,0.70,0.00,VWS V14.01,2013-03-12 10:02:00,
2013-03-12 06:03:00,54.1,53.3,29.73,NW,321,0.0,0.0,97,0.11,,SKC,0.70,0.00,VWS V14.01,2013-03-12 10:03:00,
2013-03-12 06:05:00,54.1,53.5,29.73,NW,324,0.0,1.0,98,0.11,,SKC,0.70,0.00,VWS V14.01,2013-03-12 10:05:00,
2013-03-12 06:07:00,54.1,53.5,29.73,NW,324,0.0,1.0,98,0.11,,SKC,0.70,0.00,VWS V14.01,2013-03-12 10:07:00,
2013-03-12 06:09:00,54.1,53.5,29.73,NW,324,0.0,1.0,98,0.11,,SKC,0.70,0.00,VWS V14.01,2013-03-12 10:09:00,
2013-03-12 06:10:00,54.1,53.5,29.73,NW,324,0.0,1.0,98,0.11,,SKC,0.70,0.00,VWS V14.01,2013-03-12 10:10:00,
2013-03-12 06:12:00,54.1,53.5,29.73,NW,324,0.0,1.0,98,0.11,,SKC,0.70,0.00,VWS V14.01,2013-03-12 10:12:00,
2013-03-12 06:14:00,54.1,53.5,29.73,NW,324,0.0,1.0,98,0.11,,SKC,0.70,0.00,VWS V14.01,2013-03-12 10:14:00,
2013-03-12 06:15:00,54.1,53.5,29.73,NW,324,0.0,1.0,98,0.11,,SKC,0.70,0.00,VWS V14.01,2013-03-12 10:15:00,
2013-03-12 06:16:00,54.1,53.5,29.73,NW,324,0.0,1.0,98,0.11,,SKC,0.70,0.00,VWS V14.01,2013-03-12 10:16:00,
2013-03-12 06:18:00,54.1,53.5,29.73,NW,324,0.0,1.0,98,0.11,,SKC,0.70,0.00,VWS V14.01,2013-03-12 10:18:00,
2013-03-12 06:19:00,54.1,53.5,29.73,NW,324,1.0,1.0,98,0.11,,SKC,0.70,0.00,VWS V14.01,2013-03-12 10:19:00,
2013-03-12 06:20:00,54.1,53.5,29.73,NW,324,0.0,1.0,98,0.11,,SKC,0.70,0.00,VWS V14.01,2013-03-12 10:20:00,
2013-03-12 06:21:00,54.1,53.5,29.73,NW,324,0.0,1.0,98,0.11,,SKC,0.70,0.00,VWS V14.01,2013-03-12 10:21:00,
2013-03-12 06:23:00,54.1,53.5,29.73,NW,324,2.0,2.0,98,0.11,,SKC,0.70,0.00,VWS V14.01,2013-03-12 10:23:00,
2013-03-12 06:24:00,54.1,53.5,29.73,NW,324,1.0,2.0,98,0.12,,SKC,0.71,0.00,VWS V14.01,2013-03-12 10:24:00,
2013-03-12 06:26:00,54.1,53.5,29.73,NW,324,1.0,2.0,98,0.12,,SKC,0.71,0.00,VWS V14.01,2013-03-12 10:26:00,
2013-03-12 06:28:00,54.1,53.5,29.73,NW,324,2.0,2.0,98,0.12,,SKC,0.71,0.00,VWS V14.01,2013-03-12 10:28:00,
2013-03-12 06:29:00,54.1,53.5,29.73,NW,324,0.0,2.0,98,0.12,,SKC,0.71,0.00,VWS V14.01,2013-03-12 10:29:00,
2013-03-12 06:31:00,54.1,53.5,29.73,NW,324,1.0,2.0,98,0.07,,SKC,0.71,0.00,VWS V14.01,2013-03-12 10:31:00,
2013-03-12 06:33:00,54.1,53.5,29.73,NW,324,1.0,2.0,98,0.07,,SKC,0.71,0.00,VWS V14.01,2013-03-12 10:33:00,
2013-03-12 06:34:00,54.1,53.5,29.73,NW,324,0.0,2.0,98,0.07,,SKC,0.71,0.00,VWS V14.01,2013-03-12 10:34:00,
2013-03-12 06:37:00,54.1,53.5,29.73,NW,324,3.0,3.0,98,0.07,,SKC,0.71,0.00,VWS V14.01,2013-03-12 10:37:00,
2013-03-12 06:38:00,54.1,53.5,29.73,NW,324,1.0,3.0,98,0.07,,SKC,0.71,0.00,VWS V14.01,2013-03-12 10:38:00,
2013-03-12 06:39:00,54.2,53.7,29.73,NW,324,1.0,3.0,98,0.07,,SKC,0.71,0.00,VWS V14.01,2013-03-12 10:39:00,
2013-03-12 06:42:00,54.2,53.7,29.73,NW,324,0.0,3.0,98,0.07,,SKC,0.71,0.00,VWS V14.01,2013-03-12 10:42:00,
2013-03-12 06:43:00,54.3,53.8,29.73,NW,324,0.0,3.0,98,0.07,,SKC,0.71,0.00,VWS V14.01,2013-03-12 10:43:00,
2013-03-12 06:44:00,54.3,53.8,29.73,NW,324,0.0,3.0,98,0.07,,SKC,0.71,0.00,VWS V14.01,2013-03-12 10:44:00,
2013-03-12 06:47:00,54.3,53.8,29.73,NW,324,0.0,3.0,98,0.07,,SKC,0.71,0.00,VWS V14.01,2013-03-12 10:47:00,
2013-03-12 06:48:00,54.3,53.8,29.73,NW,324,2.0,3.0,98,0.07,,SKC,0.71,0.00,VWS V14.01,2013-03-12 10:48:00,
2013-03-12 06:49:00,54.3,53.8,29.72,North,355,3.0,5.0,98,0.07,,SKC,0.71,0.00,VWS V14.01,2013-03-12 10:49:00,
2013-03-12 06:52:00,54.2,53.7,29.73,SE,128,3.0,5.0,98,0.07,,SKC,0.71,0.00,VWS V14.01,2013-03-12 10:52:00,
2013-03-12 06:53:00,54.2,53.7,29.72,SE,130,0.0,5.0,98,0.08,,SKC,0.72,0.00,VWS V14.01,2013-03-12 10:53:00,
2013-03-12 06:54:00,54.1,53.5,29.72,SE,128,0.0,5.0,98,0.08,,SKC,0.72,0.00,VWS V14.01,2013-03-12 10:54:00,
2013-03-12 06:57:00,54.1,53.5,29.72,SE,126,0.0,5.0,98,0.08,,SKC,0.72,0.00,VWS V14.01,2013-03-12 10:57:00,
2013-03-12 06:58:00,54.1,53.5,29.72,SE,126,1.0,5.0,98,0.08,,SKC,0.72,0.00,VWS V14.01,2013-03-12 10:58:00,
2013-03-12 07:00:00,54.1,53.5,29.72,SE,126,0.0,5.0,98,0.08,,SKC,0.72,0.00,VWS V14.01,2013-03-12 11:00:00,
2013-03-12 07:02:00,54.2,53.7,29.72,SE,126,0.0,0.0,98,0.03,,SKC,0.72,0.00,VWS V14.01,2013-03-12 11:02:00,
2013-03-12 07:03:00,54.3,53.8,29.72,SE,126,0.0,0.0,98,0.03,,SKC,0.72,0.00,VWS V14.01,2013-03-12 11:03:00,
2013-03-12 07:05:00,54.4,53.8,29.73,NW,307,3.0,3.0,98,0.03,,SKC,0.72,0.00,VWS V14.01,2013-03-12 11:05:00,
2013-03-12 07:07:00,54.4,53.8,29.73,NW,304,2.0,4.0,98,0.03,,SKC,0.72,0.00,VWS V14.01,2013-03-12 11:07:00,
2013-03-12 07:08:00,54.4,53.8,29.73,NW,310,2.0,4.0,98,0.03,,SKC,0.72,0.00,VWS V14.01,2013-03-12 11:08:00,
2013-03-12 07:10:00,54.4,53.8,29.73,WNW,284,0.0,4.0,98,0.05,,SKC,0.74,0.00,VWS V14.01,2013-03-12 11:10:00,
2013-03-12 07:12:00,54.4,53.8,29.73,WNW,284,0.0,4.0,98,0.07,,SKC,0.76,0.00,VWS V14.01,2013-03-12 11:12:00,
2013-03-12 07:13:00,54.4,53.8,29.73,WNW,284,0.0,4.0,98,0.08,,SKC,0.77,0.00,VWS V14.01,2013-03-12 11:13:00,
2013-03-12 07:15:00,54.4,53.8,29.73,WNW,284,0.0,4.0,98,0.08,,SKC,0.77,0.00,VWS V14.01,2013-03-12 11:15:00,
2013-03-12 07:17:00,54.4,53.8,29.73,WNW,284,0.0,4.0,98,0.08,,SKC,0.77,0.00,VWS V14.01,2013-03-12 11:17:00,
2013-03-12 07:18:00,54.4,53.8,29.73,WNW,284,0.0,4.0,98,0.09,,SKC,0.78,0.00,VWS V14.01,2013-03-12 11:18:00,
2013-03-12 07:20:00,54.5,54.0,29.73,WNW,284,0.0,4.0,98,0.09,,SKC,0.78,0.00,VWS V14.01,2013-03-12 11:20:00,
2013-03-12 07:23:00,54.6,54.0,29.73,WNW,284,0.0,4.0,98,0.09,,SKC,0.78,0.00,VWS V14.01,2013-03-12 11:23:00,
2013-03-12 07:24:00,54.7,54.2,29.73,WNW,284,0.0,4.0,98,0.09,,SKC,0.78,0.00,VWS V14.01,2013-03-12 11:24:00,
2013-03-12 07:25:00,54.8,54.2,29.74,WNW,284,1.0,4.0,98,0.09,,SKC,0.78,0.00,VWS V14.01,2013-03-12 11:25:00,
2013-03-12 07:26:00,54.8,54.2,29.74,WNW,284,2.0,4.0,98,0.09,,SKC,0.78,0.00,VWS V14.01,2013-03-12 11:26:00,
2013-03-12 07:28:00,54.8,54.2,29.74,WNW,284,0.0,4.0,98,0.09,,SKC,0.78,0.00,VWS V14.01,2013-03-12 11:28:00,
2013-03-12 07:29:00,54.8,54.2,29.73,WNW,284,0.0,4.0,98,0.09,,SKC,0.78,0.00,VWS V14.01,2013-03-12 11:29:00,
2013-03-12 07:30:00,54.8,54.2,29.73,WNW,284,0.0,4.0,98,0.09,,SKC,0.78,0.00,VWS V14.01,2013-03-12 11:30:00,
2013-03-12 07:31:00,54.8,54.2,29.73,WNW,284,0.0,4.0,98,0.09,,SKC,0.78,0.00,VWS V14.01,2013-03-12 11:31:00,
2013-03-12 07:33:00,54.8,54.2,29.73,WNW,284,1.0,1.0,98,0.07,,SKC,0.78,0.00,VWS V14.01,2013-03-12 11:33:00,
2013-03-12 07:34:00,54.7,54.2,29.74,WNW,284,1.0,2.0,98,0.07,,SKC,0.78,0.00,VWS V14.01,2013-03-12 11:34:00,
2013-03-12 07:35:00,54.7,54.2,29.74,WNW,284,1.0,2.0,98,0.07,,SKC,0.78,0.00,VWS V14.01,2013-03-12 11:35:00,
2013-03-12 07:37:00,54.7,54.2,29.74,WNW,284,1.0,2.0,98,0.07,,SKC,0.78,0.00,VWS V14.01,2013-03-12 11:37:00,
2013-03-12 07:38:00,54.8,54.2,29.74,West,279,1.0,2.0,98,0.07,,SKC,0.78,0.00,VWS V14.01,2013-03-12 11:38:00,
2013-03-12 07:39:00,54.8,54.2,29.74,West,279,1.0,2.0,98,0.09,,SKC,0.80,0.00,VWS V14.01,2013-03-12 11:39:00,
2013-03-12 07:40:00,54.8,54.2,29.74,West,279,0.0,2.0,98,0.09,,SKC,0.80,0.00,VWS V14.01,2013-03-12 11:40:00,
2013-03-12 07:42:00,54.9,54.3,29.74,SW,222,2.0,2.0,98,0.09,,SKC,0.80,0.00,VWS V14.01,2013-03-12 11:42:00,
2013-03-12 07:43:00,54.9,54.3,29.74,WSW,238,0.0,3.0,98,0.09,,SKC,0.80,0.00,VWS V14.01,2013-03-12 11:43:00,
2013-03-12 07:45:00,54.8,54.2,29.74,WSW,238,0.0,3.0,98,0.09,,SKC,0.80,0.00,VWS V14.01,2013-03-12 11:45:00,
2013-03-12 07:47:00,54.8,54.2,29.74,West,276,2.0,5.0,98,0.09,,SKC,0.80,0.00,VWS V14.01,2013-03-12 11:47:00,
2013-03-12 07:48:00,54.8,54.2,29.74,WSW,238,3.0,5.0,98,0.09,,SKC,0.80,0.00,VWS V14.01,2013-03-12 11:48:00,
2013-03-12 07:50:00,54.8,54.2,29.74,West,264,4.0,5.0,98,0.09,,SKC,0.80,0.00,VWS V14.01,2013-03-12 11:50:00,
2013-03-12 07:51:00,54.8,54.2,29.74,WSW,255,2.0,5.0,98,0.09,,SKC,0.80,0.00,VWS V14.01,2013-03-12 11:51:00,
2013-03-12 07:52:00,54.9,54.3,29.74,WSW,247,5.0,11.0,98,0.10,,SKC,0.81,5.00,VWS V14.01,2013-03-12 11:52:00,
2013-03-12 07:53:00,54.9,54.3,29.74,West,259,6.0,11.0,98,0.10,,SKC,0.81,5.00,VWS V14.01,2013-03-12 11:53:00,
2013-03-12 07:55:00,54.9,54.3,29.74,WSW,241,8.0,11.0,98,0.10,,SKC,0.81,5.00,VWS V14.01,2013-03-12 11:55:00,
2013-03-12 07:56:00,55.0,54.5,29.74,WNW,292,1.0,11.0,98,0.10,,SKC,0.81,7.00,VWS V14.01,2013-03-12 11:56:00,
2013-03-12 07:58:00,55.0,54.5,29.74,NW,311,9.0,12.0,98,0.10,,SKC,0.81,7.00,VWS V14.01,2013-03-12 11:58:00,
2013-03-12 08:00:00,54.8,54.2,29.74,West,262,5.0,12.0,98,0.10,,SKC,0.81,11.00,VWS V14.01,2013-03-12 12:00:00,
2013-03-12 08:02:00,54.8,54.2,29.74,WSW,252,6.0,10.0,98,0.09,,SKC,0.81,9.00,VWS V14.01,2013-03-12 12:02:00,
2013-03-12 08:03:00,54.7,54.2,29.74,West,268,9.0,10.0,98,0.09,,SKC,0.81,11.00,VWS V14.01,2013-03-12 12:03:00,
2013-03-12 08:05:00,54.6,53.8,29.74,WSW,252,8.0,14.0,97,0.09,,SKC,0.81,11.00,VWS V14.01,2013-03-12 12:05:00,
2013-03-12 08:07:00,54.5,53.7,29.74,West,267,8.0,14.0,97,0.09,,SKC,0.81,16.00,VWS V14.01,2013-03-12 12:07:00,
2013-03-12 08:08:00,54.4,53.6,29.74,SW,236,4.0,14.0,97,0.09,,SKC,0.81,19.00,VWS V14.01,2013-03-12 12:08:00,
2013-03-12 08:09:00,54.4,53.6,29.74,West,269,6.0,14.0,97,0.09,,SKC,0.81,23.00,VWS V14.01,2013-03-12 12:09:00,
2013-03-12 08:10:00,54.4,53.3,29.73,WNW,303,6.0,14.0,96,0.09,,SKC,0.81,25.00,VWS V14.01,2013-03-12 12:10:00,
2013-03-12 08:12:00,54.3,53.2,29.73,NW,317,4.0,14.0,96,0.09,,SKC,0.81,18.00,VWS V14.01,2013-03-12 12:12:00,
2013-03-12 08:13:00,54.3,53.2,29.73,NW,306,1.0,14.0,96,0.09,,SKC,0.81,16.00,VWS V14.01,2013-03-12 12:13:00,
2013-03-12 08:14:00,54.3,53.2,29.73,WNW,294,6.0,14.0,96,0.09,,SKC,0.81,16.00,VWS V14.01,2013-03-12 12:14:00,
2013-03-12 08:15:00,54.2,52.8,29.74,NNW,327,5.0,14.0,95,0.09,,SKC,0.81,18.00,VWS V14.01,2013-03-12 12:15:00,
2013-03-12 08:17:00,54.2,52.8,29.74,West,264,4.0,14.0,95,0.09,,SKC,0.81,23.00,VWS V14.01,2013-03-12 12:17:00,
2013-03-12 08:19:00,54.1,52.7,29.74,West,264,5.0,14.0,95,0.09,,SKC,0.81,32.00,VWS V14.01,2013-03-12 12:19:00,
2013-03-12 08:21:00,54.1,52.4,29.75,WSW,257,5.0,14.0,94,0.09,,SKC,0.81,40.00,VWS V14.01,2013-03-12 12:21:00,
2013-03-12 08:22:00,54.0,52.3,29.75,West,261,9.0,14.0,94,0.09,,SKC,0.81,49.00,VWS V14.01,2013-03-12 12:22:00,
2013-03-12 08:24:00,53.8,51.8,29.75,WSW,256,6.0,14.0,93,0.09,,SKC,0.81,53.00,VWS V14.01,2013-03-12 12:24:00,
2013-03-12 08:26:00,53.7,51.4,29.75,WNW,294,9.0,14.0,92,0.09,,SKC,0.81,54.00,VWS V14.01,2013-03-12 12:26:00,
2013-03-12 08:27:00,53.7,51.4,29.75,NW,304,5.0,14.0,92,0.09,,SKC,0.81,67.00,VWS V14.01,2013-03-12 12:27:00,
2013-03-12 08:29:00,53.6,51.0,29.76,WSW,257,3.0,14.0,91,0.09,,SKC,0.81,74.00,VWS V14.01,2013-03-12 12:29:00,
2013-03-12 08:31:00,53.5,50.9,29.76,West,265,3.0,14.0,91,0.09,,SKC,0.81,65.00,VWS V14.01,2013-03-12 12:31:00,
2013-03-12 08:32:00,53.3,50.5,29.76,WSW,256,5.0,9.0,90,0.03,,SKC,0.81,62.00,VWS V14.01,2013-03-12 12:32:00,
2013-03-12 08:34:00,53.2,50.0,29.76,WSW,238,9.0,16.0,89,0.03,,SKC,0.81,63.00,VWS V14.01,2013-03-12 12:34:00,
2013-03-12 08:36:00,53.0,49.5,29.76,WSW,255,10.0,16.0,88,0.03,,SKC,0.81,69.00,VWS V14.01,2013-03-12 12:36:00,
2013-03-12 08:37:00,52.9,49.5,29.76,WSW,249,5.0,16.0,88,0.03,,SKC,0.81,72.00,VWS V14.01,2013-03-12 12:37:00,
2013-03-12 08:39:00,52.9,49.1,29.76,West,281,13.0,18.0,87,0.03,,SKC,0.81,79.00,VWS V14.01,2013-03-12 12:39:00,
2013-03-12 08:42:00,52.8,48.7,29.76,NW,306,9.0,18.0,86,0.03,,SKC,0.81,118.00,VWS V14.01,2013-03-12 12:42:00,
2013-03-12 08:43:00,52.8,48.7,29.76,West,276,7.0,18.0,86,0.03,,SKC,0.81,104.00,VWS V14.01,2013-03-12 12:43:00,
2013-03-12 08:45:00,52.8,48.4,29.76,WNW,287,8.0,18.0,85,0.03,,SKC,0.81,105.00,VWS V14.01,2013-03-12 12:45:00,
2013-03-12 08:47:00,52.8,48.4,29.77,West,277,7.0,18.0,85,0.03,,SKC,0.81,100.00,VWS V14.01,2013-03-12 12:47:00,
2013-03-12 08:48:00,52.8,48.4,29.77,West,277,5.0,18.0,85,0.03,,SKC,0.81,84.00,VWS V14.01,2013-03-12 12:48:00,
2013-03-12 08:50:00,52.8,48.4,29.77,WNW,288,5.0,18.0,85,0.03,,SKC,0.81,76.00,VWS V14.01,2013-03-12 12:50:00,
2013-03-12 08:52:00,52.7,48.0,29.77,West,263,5.0,18.0,84,0.03,,SKC,0.81,74.00,VWS V14.01,2013-03-12 12:52:00,
2013-03-12 08:53:00,52.7,48.0,29.77,WSW,251,5.0,18.0,84,0.03,,SKC,0.81,74.00,VWS V14.01,2013-03-12 12:53:00,
2013-03-12 08:55:00,52.6,47.9,29.77,West,271,5.0,18.0,84,0.03,,SKC,0.81,72.00,VWS V14.01,2013-03-12 12:55:00,
2013-03-12 08:57:00,52.5,47.8,29.78,West,281,4.0,18.0,84,0.03,,SKC,0.81,69.00,VWS V14.01,2013-03-12 12:57:00,
2013-03-12 08:58:00,52.5,47.5,29.78,SW,230,2.0,18.0,83,0.03,,SKC,0.81,81.00,VWS V14.01,2013-03-12 12:58:00,
2013-03-12 09:00:00,52.4,47.4,29.78,WNW,288,4.0,18.0,83,0.03,,SKC,0.81,90.00,VWS V14.01,2013-03-12 13:00:00,
2013-03-12 09:02:00,52.2,46.9,29.78,WNW,282,10.0,14.0,82,0.00,,SKC,0.81,135.00,VWS V14.01,2013-03-12 13:02:00,
2013-03-12 09:03:00,52.2,46.9,29.78,WNW,284,5.0,14.0,82,0.00,,SKC,0.81,130.00,VWS V14.01,2013-03-12 13:03:00,
2013-03-12 09:05:00,52.1,46.8,29.78,West,260,5.0,14.0,82,0.00,,SKC,0.81,229.00,VWS V14.01,2013-03-12 13:05:00,
2013-03-12 09:07:00,52.1,46.8,29.78,West,260,3.0,14.0,82,0.00,,SKC,0.81,130.00,VWS V14.01,2013-03-12 13:07:00,
2013-03-12 09:09:00,52.0,46.7,29.79,West,265,9.0,14.0,82,0.00,,SKC,0.81,142.00,VWS V14.01,2013-03-12 13:09:00,
2013-03-12 09:10:00,51.9,46.3,29.79,North,355,8.0,14.0,81,0.00,,SKC,0.81,141.00,VWS V14.01,2013-03-12 13:10:00,
2013-03-12 09:13:00,51.7,46.1,29.79,WNW,284,8.0,16.0,81,0.00,,SKC,0.81,113.00,VWS V14.01,2013-03-12 13:13:00,
2013-03-12 09:15:00,51.5,45.9,29.79,NW,307,10.0,16.0,81,0.00,,SKC,0.81,295.00,VWS V14.01,2013-03-12 13:15:00,
2013-03-12 09:18:00,51.5,46.2,29.79,WNW,291,11.0,16.0,82,0.00,,SKC,0.81,323.00,VWS V14.01,2013-03-12 13:18:00,
2013-03-12 09:20:00,51.5,45.9,29.79,WSW,253,5.0,19.0,81,0.00,,SKC,0.81,336.00,VWS V14.01,2013-03-12 13:20:00,
2013-03-12 09:23:00,51.7,46.4,29.79,NW,315,10.0,19.0,82,0.00,,SKC,0.81,339.00,VWS V14.01,2013-03-12 13:23:00,
2013-03-12 09:25:00,51.9,46.6,29.79,West,274,9.0,19.0,82,0.00,,SKC,0.81,362.00,VWS V14.01,2013-03-12 13:25:00,
2013-03-12 09:28:00,51.9,45.9,29.79,WNW,303,6.0,19.0,80,0.00,,SKC,0.81,294.00,VWS V14.01,2013-03-12 13:28:00,
2013-03-12 09:30:00,51.9,46.3,29.79,West,262,4.0,19.0,81,0.00,,SKC,0.81,350.00,VWS V14.01,2013-03-12 13:30:00,
2013-03-12 09:34:00,51.8,45.8,29.80,WSW,244,8.0,13.0,80,0.00,,SKC,0.81,72.00,VWS V14.01,2013-03-12 13:34:00,
2013-03-12 09:35:00,51.6,45.6,29.80,West,260,12.0,13.0,80,0.00,,SKC,0.81,86.00,VWS V14.01,2013-03-12 13:35:00,
2013-03-12 09:36:00,51.6,45.3,29.80,West,264,9.0,13.0,79,0.00,,SKC,0.81,79.00,VWS V14.01,2013-03-12 13:36:00,
2013-03-12 09:39:00,51.4,45.1,29.80,NW,312,3.0,13.0,79,0.00,,SKC,0.81,325.00,VWS V14.01,2013-03-12 13:39:00,
2013-03-12 09:40:00,51.4,45.5,29.80,WNW,300,10.0,13.0,80,0.00,,SKC,0.81,327.00,VWS V14.01,2013-03-12 13:40:00,
2013-03-12 09:41:00,51.4,45.5,29.80,West,264,8.0,13.0,80,0.00,,SKC,0.81,327.00,VWS V14.01,2013-03-12 13:41:00,
2013-03-12 09:42:00,51.4,45.5,29.80,West,269,9.0,13.0,80,0.00,,SKC,0.81,329.00,VWS V14.01,2013-03-12 13:42:00,
2013-03-12 09:44:00,51.5,45.5,29.81,NW,307,3.0,13.0,80,0.00,,SKC,0.81,346.00,VWS V14.01,2013-03-12 13:44:00,
2013-03-12 09:45:00,51.6,46.0,29.81,West,265,4.0,13.0,81,0.00,,SKC,0.81,346.00,VWS V14.01,2013-03-12 13:45:00,
2013-03-12 09:47:00,51.7,46.1,29.81,NNW,327,6.0,13.0,81,0.00,,SKC,0.81,346.00,VWS V14.01,2013-03-12 13:47:00,
2013-03-12 09:50:00,51.9,46.3,29.81,NW,318,5.0,13.0,81,0.00,,SKC,0.81,373.00,VWS V14.01,2013-03-12 13:50:00,
2013-03-12 09:51:00,51.9,46.3,29.81,WNW,294,11.0,13.0,81,0.00,,SKC,0.81,90.00,VWS V14.01,2013-03-12 13:51:00,
2013-03-12 09:52:00,51.9,45.9,29.81,West,259,5.0,13.0,80,0.00,,SKC,0.81,90.00,VWS V14.01,2013-03-12 13:52:00,
2013-03-12 09:55:00,51.8,45.8,29.82,NNW,331,4.0,13.0,80,0.00,,SKC,0.81,127.00,VWS V14.01,2013-03-12 13:55:00,
2013-03-12 09:56:00,51.8,45.8,29.82,WNW,293,6.0,13.0,80,0.00,,SKC,0.81,137.00,VWS V14.01,2013-03-12 13:56:00,
2013-03-12 09:58:00,51.7,45.7,29.82,WNW,297,7.0,13.0,80,0.00,,SKC,0.81,478.00,VWS V14.01,2013-03-12 13:58:00,
2013-03-12 10:00:00,51.6,45.3,29.82,WNW,300,9.0,13.0,79,0.00,,SKC,0.81,490.00,VWS V14.01,2013-03-12 14:00:00,
2013-03-12 10:01:00,51.5,45.2,29.82,West,275,11.0,13.0,79,0.00,,SKC,0.81,473.00,VWS V14.01,2013-03-12 14:01:00,
2013-03-12 10:03:00,51.5,45.2,29.82,WSW,251,8.0,11.0,79,0.00,,SKC,0.81,480.00,VWS V14.01,2013-03-12 14:03:00,
2013-03-12 10:05:00,51.4,45.1,29.82,West,272,6.0,14.0,79,0.00,,SKC,0.81,462.00,VWS V14.01,2013-03-12 14:05:00,
2013-03-12 10:07:00,51.4,45.1,29.82,WNW,296,11.0,14.0,79,0.00,,SKC,0.81,466.00,VWS V14.01,2013-03-12 14:07:00,
2013-03-12 10:08:00,51.5,44.9,29.82,North,360,5.0,14.0,78,0.00,,SKC,0.81,466.00,VWS V14.01,2013-03-12 14:08:00,
2013-03-12 10:10:00,51.5,44.9,29.83,West,278,8.0,14.0,78,0.00,,SKC,0.81,466.00,VWS V14.01,2013-03-12 14:10:00,
2013-03-12 10:12:00,51.4,44.8,29.83,WSW,254,3.0,14.0,78,0.00,,SKC,0.81,445.00,VWS V14.01,2013-03-12 14:12:00,
2013-03-12 10:13:00,51.4,44.4,29.83,NW,326,7.0,14.0,77,0.00,,SKC,0.81,448.00,VWS V14.01,2013-03-12 14:13:00,
2013-03-12 10:15:00,51.5,44.5,29.83,WNW,294,5.0,16.0,77,0.00,,SKC,0.81,461.00,VWS V14.01,2013-03-12 14:15:00,
2013-03-12 10:17:00,51.7,44.7,29.83,WNW,300,4.0,16.0,77,0.00,,SKC,0.81,475.00,VWS V14.01,2013-03-12 14:17:00,
2013-03-12 10:18:00,51.7,44.7,29.83,WNW,290,3.0,16.0,77,0.00,,SKC,0.81,461.00,VWS V14.01,2013-03-12 14:18:00,
2013-03-12 10:20:00,51.8,44.5,29.83,WNW,294,11.0,16.0,76,0.00,,SKC,0.81,496.00,VWS V14.01,2013-03-12 14:20:00,
2013-03-12 10:22:00,51.7,44.0,29.83,WSW,241,3.0,16.0,75,0.00,,SKC,0.81,496.00,VWS V14.01,2013-03-12 14:22:00,
2013-03-12 10:23:00,51.7,44.0,29.83,West,267,6.0,16.0,75,0.00,,SKC,0.81,496.00,VWS V14.01,2013-03-12 14:23:00,
2013-03-12 10:25:00,51.8,44.5,29.83,NNW,340,7.0,16.0,76,0.00,,SKC,0.81,496.00,VWS V14.01,2013-03-12 14:25:00,
2013-03-12 10:27:00,51.9,44.6,29.83,NW,326,1.0,16.0,76,0.00,,SKC,0.81,522.00,VWS V14.01,2013-03-12 14:27:00,
2013-03-12 10:28:00,52.1,44.4,29.83,West,261,7.0,16.0,75,0.00,,SKC,0.81,503.00,VWS V14.01,2013-03-12 14:28:00,
2013-03-12 10:29:00,52.1,44.4,29.83,SW,236,2.0,16.0,75,0.00,,SKC,0.81,508.00,VWS V14.01,2013-03-12 14:29:00,
2013-03-12 10:31:00,52.1,44.4,29.83,West,265,9.0,16.0,75,0.00,,SKC,0.81,533.00,VWS V14.01,2013-03-12 14:31:00,
2013-03-12 10:32:00,52.0,43.3,29.83,NW,319,5.0,9.0,72,0.00,,SKC,0.81,534.00,VWS V14.01,2013-03-12 14:32:00,
2013-03-12 10:34:00,52.1,44.1,29.83,WSW,249,4.0,9.0,74,0.00,,SKC,0.81,526.00,VWS V14.01,2013-03-12 14:34:00,
2013-03-12 10:37:00,51.9,42.8,29.83,West,281,9.0,13.0,71,0.00,,SKC,0.81,524.00,VWS V14.01,2013-03-12 14:37:00,
2013-03-12 10:39:00,51.8,42.7,29.83,SW,219,5.0,13.0,71,0.00,,SKC,0.81,497.00,VWS V14.01,2013-03-12 14:39:00,
2013-03-12 10:42:00,51.8,42.7,29.83,NW,309,3.0,13.0,71,0.00,,SKC,0.81,550.00,VWS V14.01,2013-03-12 14:42:00,
2013-03-12 10:43:00,51.8,42.7,29.83,SW,215,1.0,13.0,71,0.00,,SKC,0.81,548.00,VWS V14.01,2013-03-12 14:43:00,
2013-03-12 10:44:00,51.7,42.6,29.83,WNW,296,3.0,13.0,71,0.00,,SKC,0.81,554.00,VWS V14.01,2013-03-12 14:44:00,
2013-03-12 10:47:00,51.8,42.7,29.83,WSW,245,10.0,13.0,71,0.00,,SKC,0.81,555.00,VWS V14.01,2013-03-12 14:47:00,
2013-03-12 10:48:00,51.8,42.7,29.83,WNW,283,13.0,13.0,71,0.00,,SKC,0.81,555.00,VWS V14.01,2013-03-12 14:48:00,
2013-03-12 10:49:00,51.6,42.5,29.83,West,276,10.0,13.0,71,0.00,,SKC,0.81,563.00,VWS V14.01,2013-03-12 14:49:00,
2013-03-12 10:52:00,51.3,42.6,29.84,WSW,246,8.0,13.0,72,0.00,,SKC,0.81,587.00,VWS V14.01,2013-03-12 14:52:00,
2013-03-12 10:53:00,51.2,42.5,29.84,West,261,8.0,13.0,72,0.00,,SKC,0.81,578.00,VWS V14.01,2013-03-12 14:53:00,
2013-03-12 10:54:00,51.1,42.0,29.84,West,263,8.0,13.0,71,0.00,,SKC,0.81,566.00,VWS V14.01,2013-03-12 14:54:00,
2013-03-12 10:55:00,51.1,42.0,29.84,WSW,241,4.0,13.0,71,0.00,,SKC,0.81,561.00,VWS V14.01,2013-03-12 14:55:00,
2013-03-12 10:58:00,51.0,41.9,29.84,West,262,13.0,14.0,71,0.00,,SKC,0.81,564.00,VWS V14.01,2013-03-12 14:58:00,
2013-03-12 10:59:00,50.9,41.8,29.84,SW,215,6.0,14.0,71,0.00,,SKC,0.81,504.00,VWS V14.01,2013-03-12 14:59:00,
2013-03-12 11:00:00,50.9,42.2,29.84,SW,221,8.0,14.0,72,0.00,,SKC,0.81,575.00,VWS V14.01,2013-03-12 15:00:00,
2013-03-12 11:03:00,50.8,41.8,29.84,WSW,243,9.0,13.0,71,0.00,,SKC,0.81,585.00,VWS V14.01,2013-03-12 15:03:00,
2013-03-12 11:04:00,50.7,41.3,29.84,WSW,241,9.0,14.0,70,0.00,,SKC,0.81,587.00,VWS V14.01,2013-03-12 15:04:00,
2013-03-12 11:05:00,50.6,41.2,29.84,SW,234,11.0,14.0,70,0.00,,SKC,0.81,591.00,VWS V14.01,2013-03-12 15:05:00,
2013-03-12 11:08:00,50.5,41.1,29.84,West,273,12.0,16.0,70,0.00,,SKC,0.81,615.00,VWS V14.01,2013-03-12 15:08:00,
2013-03-12 11:09:00,50.6,41.9,29.84,SW,221,7.0,16.0,72,0.00,,SKC,0.81,601.00,VWS V14.01,2013-03-12 15:09:00,
2013-03-12 11:10:00,50.6,41.2,29.84,WSW,238,11.0,16.0,70,0.00,,SKC,0.81,613.00,VWS V14.01,2013-03-12 15:10:00,
2013-03-12 11:13:00,50.4,40.6,29.84,West,259,13.0,16.0,69,0.00,,SKC,0.81,605.00,VWS V14.01,2013-03-12 15:13:00,
2013-03-12 11:14:00,50.4,41.0,29.84,West,269,12.0,16.0,70,0.00,,SKC,0.81,608.00,VWS V14.01,2013-03-12 15:14:00,
2013-03-12 11:15:00,50.3,40.9,29.84,West,271,12.0,16.0,70,0.00,,SKC,0.81,610.00,VWS V14.01,2013-03-12 15:15:00,
2013-03-12 11:18:00,50.3,40.9,29.84,WSW,242,7.0,16.0,70,0.00,,SKC,0.81,617.00,VWS V14.01,2013-03-12 15:18:00,
2013-03-12 11:19:00,50.5,41.1,29.84,West,273,10.0,16.0,70,0.00,,SKC,0.81,622.00,VWS V14.01,2013-03-12 15:19:00,
2013-03-12 11:20:00,50.5,41.1,29.84,WSW,244,9.0,16.0,70,0.00,,SKC,0.81,624.00,VWS V14.01,2013-03-12 15:20:00,
2013-03-12 11:23:00,50.6,40.8,29.85,West,268,10.0,16.0,69,0.00,,SKC,0.81,631.00,VWS V14.01,2013-03-12 15:23:00,
2013-03-12 11:25:00,50.6,41.2,29.84,WSW,240,9.0,19.0,70,0.00,,SKC,0.81,635.00,VWS V14.01,2013-03-12 15:25:00,
2013-03-12 11:28:00,50.7,40.9,29.85,SW,216,10.0,19.0,69,0.00,,SKC,0.81,642.00,VWS V14.01,2013-03-12 15:28:00,
2013-03-12 11:30:00,50.7,40.5,29.85,WNW,291,12.0,19.0,68,0.00,,SKC,0.81,645.00,VWS V14.01,2013-03-12 15:30:00,
2013-03-12 11:33:00,50.7,40.9,29.85,West,278,9.0,17.0,69,0.00,,SKC,0.81,652.00,VWS V14.01,2013-03-12 15:33:00,
2013-03-12 11:35:00,50.7,40.9,29.85,West,262,10.0,17.0,69,0.00,,SKC,0.81,656.00,VWS V14.01,2013-03-12 15:35:00,
2013-03-12 11:38:00,50.8,40.6,29.85,West,273,4.0,17.0,68,0.00,,SKC,0.81,664.00,VWS V14.01,2013-03-12 15:38:00,
2013-03-12 11:40:00,51.1,41.7,29.85,West,267,10.0,17.0,70,0.00,,SKC,0.81,668.00,VWS V14.01,2013-03-12 15:40:00,
2013-03-12 11:41:00,51.1,40.9,29.85,West,280,7.0,17.0,68,0.00,,SKC,0.81,670.00,VWS V14.01,2013-03-12 15:41:00,
2013-03-12 11:43:00,51.0,40.4,29.85,SW,236,12.0,19.0,67,0.00,,SKC,0.81,675.00,VWS V14.01,2013-03-12 15:43:00,
2013-03-12 11:45:00,51.0,41.6,29.85,West,276,6.0,19.0,70,0.00,,SKC,0.81,679.00,VWS V14.01,2013-03-12 15:45:00,
2013-03-12 11:46:00,51.2,41.8,29.85,SW,225,6.0,19.0,70,0.00,,SKC,0.81,680.00,VWS V14.01,2013-03-12 15:46:00,
2013-03-12 11:49:00,51.1,40.2,29.85,WNW,286,11.0,19.0,66,0.00,,SKC,0.81,689.00,VWS V14.01,2013-03-12 15:49:00,
2013-03-12 11:50:00,51.0,40.1,29.85,West,269,8.0,19.0,66,0.00,,SKC,0.81,687.00,VWS V14.01,2013-03-12 15:50:00,
2013-03-12 11:52:00,51.0,40.4,29.85,West,271,10.0,19.0,67,0.00,,SKC,0.81,693.00,VWS V14.01,2013-03-12 15:52:00,
2013-03-12 11:54:00,51.0,40.8,29.85,WSW,258,10.0,19.0,68,0.00,,SKC,0.81,696.00,VWS V14.01,2013-03-12 15:54:00,
2013-03-12 11:55:00,50.9,40.3,29.85,SW,223,17.0,19.0,67,0.00,,SKC,0.81,700.00,VWS V14.01,2013-03-12 15:55:00,
2013-03-12 11:56:00,50.9,40.3,29.85,WSW,244,6.0,19.0,67,0.00,,SKC,0.81,703.00,VWS V14.01,2013-03-12 15:56:00,
2013-03-12 11:57:00,51.0,41.2,29.85,West,271,9.0,19.0,69,0.00,,SKC,0.81,703.00,VWS V14.01,2013-03-12 15:57:00,
2013-03-12 11:59:00,51.1,40.5,29.85,WSW,255,14.0,19.0,67,0.00,,SKC,0.81,705.00,VWS V14.01,2013-03-12 15:59:00,
2013-03-12 12:00:00,51.0,40.1,29.85,WSW,244,13.0,19.0,66,0.00,,SKC,0.81,710.00,VWS V14.01,2013-03-12 16:00:00,
2013-03-12 12:01:00,50.9,40.0,29.85,West,269,19.0,19.0,66,0.00,,SKC,0.81,712.00,VWS V14.01,2013-03-12 16:01:00,
2013-03-12 12:02:00,50.8,39.9,29.85,West,271,10.0,21.0,66,0.00,,SKC,0.81,714.00,VWS V14.01,2013-03-12 16:02:00,
2013-03-12 12:04:00,50.8,41.0,29.85,West,261,8.0,21.0,69,0.00,,SKC,0.81,717.00,VWS V14.01,2013-03-12 16:04:00,
2013-03-12 12:05:00,51.0,40.8,29.85,West,274,10.0,21.0,68,0.00,,SKC,0.81,719.00,VWS V14.01,2013-03-12 16:05:00,
2013-03-12 12:07:00,51.2,41.0,29.85,SW,219,10.0,21.0,68,0.00,,SKC,0.81,719.00,VWS V14.01,2013-03-12 16:07:00,
2013-03-12 12:09:00,51.4,41.2,29.85,West,269,8.0,21.0,68,0.00,,SKC,0.81,726.00,VWS V14.01,2013-03-12 16:09:00,
2013-03-12 12:11:00,51.7,41.1,29.85,West,277,11.0,21.0,67,0.00,,SKC,0.81,728.00,VWS V14.01,2013-03-12 16:11:00,
2013-03-12 12:12:00,51.7,41.1,29.85,West,272,14.0,21.0,67,0.00,,SKC,0.81,731.00,VWS V14.01,2013-03-12 16:12:00,
2013-03-12 12:15:00,51.7,40.7,29.85,WNW,296,6.0,21.0,66,0.00,,SKC,0.81,737.00,VWS V14.01,2013-03-12 16:15:00,
2013-03-12 12:16:00,51.8,40.4,29.85,West,267,7.0,21.0,65,0.00,,SKC,0.81,737.00,VWS V14.01,2013-03-12 16:16:00,
2013-03-12 12:17:00,51.7,39.9,29.84,WNW,286,12.0,21.0,64,0.00,,SKC,0.81,737.00,VWS V14.01,2013-03-12 16:17:00,
2013-03-12 12:20:00,51.5,39.7,29.84,West,259,14.0,21.0,64,0.00,,SKC,0.81,744.00,VWS V14.01,2013-03-12 16:20:00,
2013-03-12 12:21:00,51.5,40.1,29.84,West,265,12.0,21.0,65,0.00,,SKC,0.81,749.00,VWS V14.01,2013-03-12 16:21:00,
2013-03-12 12:22:00,51.5,40.1,29.84,WSW,257,15.0,21.0,65,0.00,,SKC,0.81,749.00,VWS V14.01,2013-03-12 16:22:00,
2013-03-12 12:23:00,51.5,39.7,29.84,WSW,239,9.0,21.0,64,0.00,,SKC,0.81,751.00,VWS V14.01,2013-03-12 16:23:00,
2013-03-12 12:25:00,51.3,39.5,29.84,West,261,13.0,21.0,64,0.00,,SKC,0.81,756.00,VWS V14.01,2013-03-12 16:25:00,
2013-03-12 12:26:00,51.2,39.5,29.84,West,271,11.0,21.0,64,0.00,,SKC,0.81,756.00,VWS V14.01,2013-03-12 16:26:00,
2013-03-12 12:27:00,51.2,39.5,29.84,West,275,15.0,21.0,64,0.00,,SKC,0.81,759.00,VWS V14.01,2013-03-12 16:27:00,
2013-03-12 12:28:00,51.1,39.4,29.84,SW,233,6.0,21.0,64,0.00,,SKC,0.81,761.00,VWS V14.01,2013-03-12 16:28:00,
2013-03-12 12:30:00,51.2,39.5,29.84,West,270,14.0,21.0,64,0.00,,SKC,0.81,768.00,VWS V14.01,2013-03-12 16:30:00,
2013-03-12 12:32:00,51.4,40.0,29.84,WNW,290,13.0,13.0,65,0.00,,SKC,0.81,770.00,VWS V14.01,2013-03-12 16:32:00,
2013-03-12 12:33:00,51.7,40.7,29.84,West,273,11.0,14.0,66,0.00,,SKC,0.81,772.00,VWS V14.01,2013-03-12 16:33:00,
2013-03-12 12:35:00,51.8,40.4,29.84,West,277,8.0,17.0,65,0.00,,SKC,0.81,773.00,VWS V14.01,2013-03-12 16:35:00,
2013-03-12 12:37:00,51.9,40.1,29.84,West,279,10.0,17.0,64,0.00,,SKC,0.81,777.00,VWS V14.01,2013-03-12 16:37:00,
2013-03-12 12:38:00,51.9,40.5,29.84,West,272,10.0,17.0,65,0.00,,SKC,0.81,777.00,VWS V14.01,2013-03-12 16:38:00,
2013-03-12 12:40:00,51.9,40.1,29.84,WNW,292,12.0,18.0,64,0.00,,SKC,0.81,780.00,VWS V14.01,2013-03-12 16:40:00,
2013-03-12 12:42:00,51.8,40.0,29.84,WSW,257,11.0,18.0,64,0.00,,SKC,0.81,780.00,VWS V14.01,2013-03-12 16:42:00,
2013-03-12 12:43:00,51.8,40.0,29.84,WNW,285,10.0,18.0,64,0.00,,SKC,0.81,780.00,VWS V14.01,2013-03-12 16:43:00,
2013-03-12 12:45:00,51.9,40.5,29.84,WSW,252,2.0,18.0,65,0.00,,SKC,0.81,786.00,VWS V14.01,2013-03-12 16:45:00,
2013-03-12 12:48:00,52.2,40.0,29.84,West,274,11.0,18.0,63,0.00,,SKC,0.81,789.00,VWS V14.01,2013-03-12 16:48:00,
2013-03-12 12:49:00,52.1,39.9,29.84,WSW,251,10.0,18.0,63,0.00,,SKC,0.81,789.00,VWS V14.01,2013-03-12 16:49:00,
2013-03-12 12:51:00,51.7,39.1,29.84,WSW,240,20.0,20.0,62,0.00,,SKC,0.81,793.00,VWS V14.01,2013-03-12 16:51:00,
2013-03-12 12:53:00,51.3,39.2,29.84,West,261,17.0,22.0,63,0.00,,SKC,0.81,793.00,VWS V14.01,2013-03-12 16:53:00,
2013-03-12 12:54:00,51.3,39.2,29.85,WSW,246,8.0,22.0,63,0.00,,SKC,0.81,795.00,VWS V14.01,2013-03-12 16:54:00,
2013-03-12 12:56:00,51.5,39.3,29.85,NW,304,11.0,22.0,63,0.00,,SKC,0.81,798.00,VWS V14.01,2013-03-12 16:56:00,
2013-03-12 12:58:00,51.6,39.0,29.85,West,269,10.0,22.0,62,0.00,,SKC,0.81,800.00,VWS V14.01,2013-03-12 16:58:00,
2013-03-12 12:59:00,51.7,39.1,29.85,West,263,13.0,22.0,62,0.00,,SKC,0.81,802.00,VWS V14.01,2013-03-12 16:59:00,
2013-03-12 13:01:00,51.7,39.9,29.85,West,266,6.0,7.0,64,0.00,,SKC,0.81,802.00,VWS V14.01,2013-03-12 17:01:00,
2013-03-12 13:03:00,52.0,39.0,29.84,WSW,241,11.0,17.0,61,0.00,,SKC,0.81,805.00,VWS V14.01,2013-03-12 17:03:00,
2013-03-12 13:04:00,52.0,39.4,29.84,WNW,300,6.0,17.0,62,0.00,,SKC,0.81,803.00,VWS V14.01,2013-03-12 17:04:00,
2013-03-12 13:07:00,52.1,39.5,29.85,West,271,11.0,17.0,62,0.00,,SKC,0.81,805.00,VWS V14.01,2013-03-12 17:07:00,
2013-03-12 13:08:00,52.3,40.1,29.85,North,355,7.0,17.0,63,0.00,,SKC,0.81,807.00,VWS V14.01,2013-03-12 17:08:00,
2013-03-12 13:09:00,52.4,40.2,29.85,West,279,7.0,17.0,63,0.00,,SKC,0.81,807.00,VWS V14.01,2013-03-12 17:09:00,
2013-03-12 13:12:00,53.1,40.4,29.85,WSW,252,5.0,17.0,62,0.00,,SKC,0.81,809.00,VWS V14.01,2013-03-12 17:12:00,
2013-03-12 13:14:00,53.3,39.8,29.85,WNW,303,12.0,18.0,60,0.00,,SKC,0.81,809.00,VWS V14.01,2013-03-12 17:14:00,
2013-03-12 13:15:00,53.3,39.8,29.85,NNW,335,10.0,18.0,60,0.00,,SKC,0.81,809.00,VWS V14.01,2013-03-12 17:15:00,
2013-03-12 13:17:00,53.5,40.4,29.85,WNW,285,12.0,18.0,61,0.00,,SKC,0.81,810.00,VWS V14.01,2013-03-12 17:17:00,
2013-03-12 13:19:00,53.4,39.5,29.85,WNW,286,5.0,18.0,59,0.00,,SKC,0.81,810.00,VWS V14.01,2013-03-12 17:19:00,
2013-03-12 13:20:00,53.4,39.9,29.85,WSW,237,0.0,18.0,60,0.00,,SKC,0.81,810.00,VWS V14.01,2013-03-12 17:20:00,
2013-03-12 13:22:00,53.5,40.0,29.84,West,272,12.0,18.0,60,0.00,,SKC,0.81,814.00,VWS V14.01,2013-03-12 17:22:00,
2013-03-12 13:24:00,53.2,38.8,29.85,SW,230,7.0,18.0,58,0.00,,SKC,0.81,814.00,VWS V14.01,2013-03-12 17:24:00,
2013-03-12 13:25:00,53.2,39.3,29.85,West,279,12.0,18.0,59,0.00,,SKC,0.81,816.00,VWS V14.01,2013-03-12 17:25:00,
2013-03-12 13:27:00,52.8,38.9,29.85,SW,234,8.0,20.0,59,0.00,,SKC,0.81,817.00,VWS V14.01,2013-03-12 17:27:00,
2013-03-12 13:28:00,52.8,39.3,29.85,WSW,251,7.0,20.0,60,0.00,,SKC,0.81,814.00,VWS V14.01,2013-03-12 17:28:00,
2013-03-12 13:29:00,52.7,39.2,29.84,SW,233,6.0,20.0,60,0.00,,SKC,0.81,816.00,VWS V14.01,2013-03-12 17:29:00,
2013-03-12 13:30:00,52.8,38.9,29.84,WSW,248,11.0,20.0,59,0.00,,SKC,0.81,817.00,VWS V14.01,2013-03-12 17:30:00,
2013-03-12 13:33:00,52.5,39.0,29.84,WSW,240,4.0,11.0,60,0.00,,SKC,0.81,816.00,VWS V14.01,2013-03-12 17:33:00,
2013-03-12 13:34:00,52.7,39.6,29.84,WSW,237,10.0,11.0,61,0.00,,SKC,0.81,817.00,VWS V14.01,2013-03-12 17:34:00,
2013-03-12 13:35:00,52.7,38.8,29.84,West,267,6.0,11.0,59,0.00,,SKC,0.81,816.00,VWS V14.01,2013-03-12 17:35:00,
2013-03-12 13:38:00,52.5,38.6,29.84,SW,225,9.0,14.0,59,0.00,,SKC,0.81,819.00,VWS V14.01,2013-03-12 17:38:00,
2013-03-12 13:39:00,52.5,38.6,29.84,SW,234,14.0,14.0,59,0.00,,SKC,0.81,819.00,VWS V14.01,2013-03-12 17:39:00,
2013-03-12 13:40:00,51.8,37.9,29.84,WSW,249,6.0,14.0,59,0.00,,SKC,0.81,819.00,VWS V14.01,2013-03-12 17:40:00,
2013-03-12 13:44:00,52.0,38.6,29.84,WSW,237,9.0,14.0,60,0.00,,SKC,0.81,819.00,VWS V14.01,2013-03-12 17:44:00,
2013-03-12 13:45:00,52.2,38.8,29.84,WSW,253,14.0,14.0,60,0.00,,SKC,0.81,817.00,VWS V14.01,2013-03-12 17:45:00,
2013-03-12 13:49:00,52.1,38.2,29.84,WSW,258,13.0,15.0,59,0.00,,SKC,0.81,821.00,VWS V14.01,2013-03-12 17:49:00,
2013-03-12 13:50:00,51.9,38.0,29.84,West,263,10.0,15.0,59,0.00,,SKC,0.81,821.00,VWS V14.01,2013-03-12 17:50:00,
2013-03-12 13:54:00,52.4,39.4,29.84,West,275,1.0,15.0,61,0.00,,SKC,0.81,819.00,VWS V14.01,2013-03-12 17:54:00,
2013-03-12 13:55:00,53.1,40.0,29.84,SW,229,8.0,15.0,61,0.00,,SKC,0.81,819.00,VWS V14.01,2013-03-12 17:55:00,
2013-03-12 13:59:00,52.6,38.3,29.84,WSW,251,6.0,15.0,58,0.00,,SKC,0.81,819.00,VWS V14.01,2013-03-12 17:59:00,
2013-03-12 14:00:00,52.6,39.1,29.84,SW,229,14.0,15.0,60,0.00,,SKC,0.81,819.00,VWS V14.01,2013-03-12 18:00:00,
2013-03-12 14:01:00,52.7,39.2,29.84,WSW,242,7.0,15.0,60,0.00,,SKC,0.81,819.00,VWS V14.01,2013-03-12 18:01:00,
2013-03-12 14:04:00,53.0,39.5,29.85,West,273,6.0,10.0,60,0.00,,SKC,0.81,817.00,VWS V14.01,2013-03-12 18:04:00,
2013-03-12 14:05:00,53.0,39.1,29.85,WNW,284,7.0,11.0,59,0.00,,SKC,0.81,817.00,VWS V14.01,2013-03-12 18:05:00,
2013-03-12 14:06:00,53.2,39.3,29.84,NNW,334,10.0,11.0,59,0.00,,SKC,0.81,816.00,VWS V14.01,2013-03-12 18:06:00,
2013-03-12 14:09:00,53.8,39.4,29.84,North,355,6.0,12.0,58,0.00,,SKC,0.81,816.00,VWS V14.01,2013-03-12 18:09:00,
2013-03-12 14:10:00,54.0,40.4,29.84,NNW,342,1.0,12.0,60,0.00,,SKC,0.81,810.00,VWS V14.01,2013-03-12 18:10:00,
2013-03-12 14:12:00,55.0,39.6,29.84,NNW,329,7.0,12.0,56,0.00,,SKC,0.81,816.00,VWS V14.01,2013-03-12 18:12:00,
2013-03-12 14:14:00,54.4,38.6,29.85,NNW,331,9.0,17.0,55,0.00,,SKC,0.81,814.00,VWS V14.01,2013-03-12 18:14:00,
2013-03-12 14:15:00,54.1,38.3,29.84,NW,313,3.0,17.0,55,0.00,,SKC,0.81,816.00,VWS V14.01,2013-03-12 18:15:00,
2013-03-12 14:16:00,53.9,39.5,29.85,SW,235,7.0,17.0,58,0.00,,SKC,0.81,814.00,VWS V14.01,2013-03-12 18:16:00,
2013-03-12 14:20:00,53.8,39.4,29.85,West,275,6.0,17.0,58,0.00,,SKC,0.81,810.00,VWS V14.01,2013-03-12 18:20:00,
2013-03-12 14:22:00,53.3,39.3,29.84,WNW,288,3.0,17.0,59,0.00,,SKC,0.81,810.00,VWS V14.01,2013-03-12 18:22:00,
2013-03-12 14:25:00,53.6,39.6,29.84,WSW,248,8.0,17.0,59,0.00,,SKC,0.81,810.00,VWS V14.01,2013-03-12 18:25:00,
2013-03-12 14:26:00,53.7,39.3,29.84,NW,309,7.0,17.0,58,0.00,,SKC,0.81,810.00,VWS V14.01,2013-03-12 18:26:00,
2013-03-12 14:27:00,53.7,38.4,29.84,WNW,302,8.0,17.0,56,0.00,,SKC,0.81,807.00,VWS V14.01,2013-03-12 18:27:00,
2013-03-12 14:30:00,54.3,40.3,29.84,NNW,339,2.0,17.0,59,0.00,,SKC,0.81,807.00,VWS V14.01,2013-03-12 18:30:00,
2013-03-12 14:31:00,54.6,40.6,29.84,WNW,284,4.0,17.0,59,0.00,,SKC,0.81,805.00,VWS V14.01,2013-03-12 18:31:00,
2013-03-12 14:32:00,54.6,39.2,29.84,SSW,209,8.0,12.0,56,0.00,,SKC,0.81,805.00,VWS V14.01,2013-03-12 18:32:00,
2013-03-12 14:35:00,53.8,38.5,29.84,WNW,302,4.0,12.0,56,0.00,,SKC,0.81,802.00,VWS V14.01,2013-03-12 18:35:00,
2013-03-12 14:36:00,53.8,38.5,29.84,WSW,242,3.0,12.0,56,0.00,,SKC,0.81,803.00,VWS V14.01,2013-03-12 18:36:00,
2013-03-12 14:37:00,53.7,38.4,29.84,WNW,284,7.0,12.0,56,0.00,,SKC,0.81,800.00,VWS V14.01,2013-03-12 18:37:00,
2013-03-12 14:40:00,53.9,39.0,29.85,WNW,302,8.0,12.0,57,0.00,,SKC,0.81,796.00,VWS V14.01,2013-03-12 18:40:00,
2013-03-12 14:41:00,54.0,39.1,29.84,NW,304,5.0,12.0,57,0.00,,SKC,0.81,796.00,VWS V14.01,2013-03-12 18:41:00,
2013-03-12 14:42:00,54.0,38.7,29.84,West,263,8.0,12.0,56,0.00,,SKC,0.81,796.00,VWS V14.01,2013-03-12 18:42:00,
2013-03-12 14:45:00,53.9,39.0,29.84,SSW,213,7.0,15.0,57,0.00,,SKC,0.81,791.00,VWS V14.01,2013-03-12 18:45:00,
2013-03-12 14:46:00,53.8,38.0,29.84,WSW,250,5.0,15.0,55,0.00,,SKC,0.81,793.00,VWS V14.01,2013-03-12 18:46:00,
2013-03-12 14:47:00,53.8,38.0,29.84,SW,228,8.0,15.0,55,0.00,,SKC,0.81,791.00,VWS V14.01,2013-03-12 18:47:00,
2013-03-12 14:50:00,53.8,38.0,29.85,NW,304,3.0,15.0,55,0.00,,SKC,0.81,786.00,VWS V14.01,2013-03-12 18:50:00,
2013-03-12 14:51:00,54.1,38.8,29.85,WNW,296,4.0,15.0,56,0.00,,SKC,0.81,784.00,VWS V14.01,2013-03-12 18:51:00,
2013-03-12 14:52:00,54.4,40.0,29.85,NNW,335,6.0,15.0,58,0.00,,SKC,0.81,782.00,VWS V14.01,2013-03-12 18:52:00,
2013-03-12 14:55:00,54.9,38.6,29.85,West,268,5.0,15.0,54,0.00,,SKC,0.81,779.00,VWS V14.01,2013-03-12 18:55:00,
2013-03-12 14:57:00,54.6,38.3,29.85,West,260,11.0,15.0,54,0.00,,SKC,0.81,779.00,VWS V14.01,2013-03-12 18:57:00,
2013-03-12 14:58:00,54.4,38.6,29.85,WSW,252,11.0,15.0,55,0.00,,SKC,0.81,777.00,VWS V14.01,2013-03-12 18:58:00,
2013-03-12 15:02:00,53.6,36.9,29.85,West,264,2.0,15.0,53,0.00,,SKC,0.81,775.00,VWS V14.01,2013-03-12 19:02:00,
2013-03-12 15:03:00,53.6,36.9,29.85,WSW,254,10.0,15.0,53,0.00,,SKC,0.81,772.00,VWS V14.01,2013-03-12 19:03:00,
2013-03-12 15:07:00,53.5,37.3,29.85,NNW,329,10.0,15.0,54,0.00,,SKC,0.81,766.00,VWS V14.01,2013-03-12 19:07:00,
2013-03-12 15:08:00,53.5,37.3,29.85,West,276,6.0,15.0,54,0.00,,SKC,0.81,763.00,VWS V14.01,2013-03-12 19:08:00,
2013-03-12 15:12:00,54.1,38.8,29.84,WSW,240,7.0,16.0,56,0.00,,SKC,0.81,758.00,VWS V14.01,2013-03-12 19:12:00,
2013-03-12 15:13:00,54.1,38.3,29.84,SW,235,7.0,16.0,55,0.00,,SKC,0.81,756.00,VWS V14.01,2013-03-12 19:13:00,
2013-03-12 15:17:00,53.6,37.8,29.84,West,268,11.0,16.0,55,0.00,,SKC,0.81,749.00,VWS V14.01,2013-03-12 19:17:00,
2013-03-12 15:18:00,53.6,37.8,29.84,WSW,246,8.0,16.0,55,0.00,,SKC,0.81,749.00,VWS V14.01,2013-03-12 19:18:00,
2013-03-12 15:22:00,53.2,37.0,29.85,SW,222,11.0,16.0,54,0.00,,SKC,0.81,742.00,VWS V14.01,2013-03-12 19:22:00,
2013-03-12 15:23:00,53.2,36.5,29.84,West,267,10.0,16.0,53,0.00,,SKC,0.81,738.00,VWS V14.01,2013-03-12 19:23:00,
2013-03-12 15:27:00,53.2,36.0,29.85,SW,233,8.0,18.0,52,0.00,,SKC,0.81,731.00,VWS V14.01,2013-03-12 19:27:00,
2013-03-12 15:28:00,53.1,36.4,29.85,WSW,246,10.0,18.0,53,0.00,,SKC,0.81,731.00,VWS V14.01,2013-03-12 19:28:00,
2013-03-12 15:33:00,53.2,37.5,29.84,SW,229,13.0,13.0,55,0.00,,SKC,0.81,722.00,VWS V14.01,2013-03-12 19:33:00,
2013-03-12 15:38:00,53.6,37.4,29.84,West,271,10.0,14.0,54,0.00,,SKC,0.81,712.00,VWS V14.01,2013-03-12 19:38:00,
2013-03-12 15:39:00,53.7,37.0,29.84,WNW,285,14.0,16.0,53,0.00,,SKC,0.81,708.00,VWS V14.01,2013-03-12 19:39:00,
2013-03-12 15:43:00,53.9,36.7,29.84,West,281,12.0,16.0,52,0.00,,SKC,0.81,700.00,VWS V14.01,2013-03-12 19:43:00,
2013-03-12 15:44:00,53.9,36.7,29.84,WNW,288,11.0,16.0,52,0.00,,SKC,0.81,700.00,VWS V14.01,2013-03-12 19:44:00,
2013-03-12 15:49:00,53.9,37.2,29.85,West,280,4.0,16.0,53,0.00,,SKC,0.81,689.00,VWS V14.01,2013-03-12 19:49:00,
2013-03-12 15:54:00,54.0,36.3,29.85,NW,321,12.0,20.0,51,0.00,,SKC,0.81,677.00,VWS V14.01,2013-03-12 19:54:00,
2013-03-12 15:55:00,53.9,36.2,29.84,NNW,348,11.0,20.0,51,0.00,,SKC,0.81,675.00,VWS V14.01,2013-03-12 19:55:00,
2013-03-12 15:59:00,53.7,36.0,29.84,NW,313,9.0,20.0,51,0.00,,SKC,0.81,664.00,VWS V14.01,2013-03-12 19:59:00,
2013-03-12 16:00:00,53.7,36.5,29.85,NW,325,7.0,20.0,52,0.00,,SKC,0.81,664.00,VWS V14.01,2013-03-12 20:00:00,
2013-03-12 16:04:00,54.2,37.0,29.85,WNW,290,6.0,17.0,52,0.00,,SKC,0.81,654.00,VWS V14.01,2013-03-12 20:04:00,
2013-03-12 16:05:00,54.2,36.5,29.85,West,259,8.0,17.0,51,0.00,,SKC,0.81,652.00,VWS V14.01,2013-03-12 20:05:00,
2013-03-12 16:09:00,54.1,36.4,29.85,NNW,348,10.0,17.0,51,0.00,,SKC,0.81,642.00,VWS V14.01,2013-03-12 20:09:00,
2013-03-12 16:10:00,53.9,35.7,29.85,NNW,337,7.0,17.0,50,0.00,,SKC,0.81,638.00,VWS V14.01,2013-03-12 20:10:00,
2013-03-12 16:14:00,53.6,35.9,29.85,NW,323,8.0,17.0,51,0.00,,SKC,0.81,628.00,VWS V14.01,2013-03-12 20:14:00,
2013-03-12 16:15:00,53.6,35.9,29.85,NNW,330,10.0,17.0,51,0.00,,SKC,0.81,622.00,VWS V14.01,2013-03-12 20:15:00,
2013-03-12 16:19:00,53.5,35.8,29.85,NNW,344,12.0,20.0,51,0.00,,SKC,0.81,612.00,VWS V14.01,2013-03-12 20:19:00,
2013-03-12 16:20:00,53.4,35.7,29.85,NNW,335,10.0,20.0,51,0.00,,SKC,0.81,612.00,VWS V14.01,2013-03-12 20:20:00,
2013-03-12 16:24:00,53.3,35.7,29.86,North,355,4.0,20.0,51,0.00,,SKC,0.81,599.00,VWS V14.01,2013-03-12 20:24:00,
2013-03-12 16:25:00,53.3,36.1,29.86,NNW,329,4.0,20.0,52,0.00,,SKC,0.81,599.00,VWS V14.01,2013-03-12 20:25:00,
2013-03-12 16:29:00,53.6,36.4,29.85,North,355,8.0,20.0,52,0.00,,SKC,0.81,589.00,VWS V14.01,2013-03-12 20:29:00,
2013-03-12 16:30:00,53.7,36.5,29.85,NW,318,7.0,20.0,52,0.00,,SKC,0.81,589.00,VWS V14.01,2013-03-12 20:30:00,
2013-03-12 16:35:00,53.8,37.1,29.85,NNW,344,10.0,13.0,53,0.00,,SKC,0.81,573.00,VWS V14.01,2013-03-12 20:35:00,
2013-03-12 16:36:00,53.8,36.1,29.85,NNW,342,11.0,14.0,51,0.00,,SKC,0.81,571.00,VWS V14.01,2013-03-12 20:36:00,
2013-03-12 16:40:00,53.4,36.2,29.85,NNW,342,8.0,14.0,52,0.00,,SKC,0.81,559.00,VWS V14.01,2013-03-12 20:40:00,
2013-03-12 16:41:00,53.4,36.2,29.85,NNW,340,4.0,14.0,52,0.00,,SKC,0.81,557.00,VWS V14.01,2013-03-12 20:41:00,
2013-03-12 16:45:00,53.7,36.5,29.85,West,277,3.0,14.0,52,0.00,,SKC,0.81,524.00,VWS V14.01,2013-03-12 20:45:00,
2013-03-12 16:46:00,53.7,36.0,29.85,NNW,346,4.0,14.0,51,0.00,,SKC,0.81,522.00,VWS V14.01,2013-03-12 20:46:00,
2013-03-12 16:47:00,53.8,36.6,29.85,NNW,331,1.0,14.0,52,0.00,,SKC,0.81,466.00,VWS V14.01,2013-03-12 20:47:00,
2013-03-12 16:50:00,54.2,37.0,29.85,WNW,292,9.0,14.0,52,0.00,,SKC,0.81,434.00,VWS V14.01,2013-03-12 20:50:00,
2013-03-12 16:51:00,54.3,36.1,29.86,NNW,333,5.0,14.0,50,0.00,,SKC,0.81,387.00,VWS V14.01,2013-03-12 20:51:00,
2013-03-12 16:52:00,54.2,36.5,29.85,North,5,7.0,14.0,51,0.00,,SKC,0.81,369.00,VWS V14.01,2013-03-12 20:52:00,
2013-03-12 16:55:00,54.0,36.3,29.86,NNW,343,5.0,14.0,51,0.00,,SKC,0.81,387.00,VWS V14.01,2013-03-12 20:55:00,
2013-03-12 16:56:00,53.9,36.2,29.86,NNW,348,8.0,14.0,51,0.00,,SKC,0.81,311.00,VWS V14.01,2013-03-12 20:56:00,
2013-03-12 16:57:00,53.9,36.2,29.85,NNW,335,12.0,14.0,51,0.00,,SKC,0.81,330.00,VWS V14.01,2013-03-12 20:57:00,
2013-03-12 17:00:00,53.7,35.5,29.86,NW,326,11.0,14.0,50,0.00,,SKC,0.81,381.00,VWS V14.01,2013-03-12 21:00:00,
2013-03-12 17:01:00,53.6,35.4,29.86,NNW,343,9.0,11.0,50,0.00,,SKC,0.81,359.00,VWS V14.01,2013-03-12 21:01:00,
2013-03-12 17:03:00,53.5,35.8,29.86,North,360,7.0,11.0,51,0.00,,SKC,0.81,318.00,VWS V14.01,2013-03-12 21:03:00,
2013-03-12 17:05:00,53.5,35.8,29.86,North,355,6.0,12.0,51,0.00,,SKC,0.81,223.00,VWS V14.01,2013-03-12 21:05:00,
2013-03-12 17:06:00,53.5,36.3,29.86,NNW,329,8.0,12.0,52,0.00,,SKC,0.81,223.00,VWS V14.01,2013-03-12 21:06:00,
2013-03-12 17:07:00,53.5,35.8,29.86,North,9,7.0,14.0,51,0.00,,SKC,0.81,278.00,VWS V14.01,2013-03-12 21:07:00,
2013-03-12 17:08:00,53.6,35.9,29.86,NW,326,9.0,14.0,51,0.00,,SKC,0.81,172.00,VWS V14.01,2013-03-12 21:08:00,
2013-03-12 17:10:00,53.5,35.8,29.86,NNW,343,7.0,14.0,51,0.00,,SKC,0.81,200.00,VWS V14.01,2013-03-12 21:10:00,
2013-03-12 17:11:00,53.5,35.8,29.86,NNW,338,7.0,14.0,51,0.00,,SKC,0.81,216.00,VWS V14.01,2013-03-12 21:11:00,
2013-03-12 17:12:00,53.5,36.3,29.86,West,275,3.0,14.0,52,0.00,,SKC,0.81,216.00,VWS V14.01,2013-03-12 21:12:00,
2013-03-12 17:14:00,53.6,35.9,29.86,NW,323,9.0,14.0,51,0.00,,SKC,0.81,172.00,VWS V14.01,2013-03-12 21:14:00,
2013-03-12 17:16:00,53.6,35.4,29.86,NW,321,4.0,14.0,50,0.00,,SKC,0.81,188.00,VWS V14.01,2013-03-12 21:16:00,
2013-03-12 17:17:00,53.5,35.3,29.86,North,360,5.0,14.0,50,0.00,,SKC,0.81,121.00,VWS V14.01,2013-03-12 21:17:00,
2013-03-12 17:19:00,53.5,35.8,29.86,NNW,336,6.0,14.0,51,0.00,,SKC,0.81,155.00,VWS V14.01,2013-03-12 21:19:00,
2013-03-12 17:21:00,53.4,35.7,29.86,NW,307,4.0,14.0,51,0.00,,SKC,0.81,178.00,VWS V14.01,2013-03-12 21:21:00,
2013-03-12 17:22:00,53.4,36.2,29.86,NNW,339,9.0,14.0,52,0.00,,SKC,0.81,225.00,VWS V14.01,2013-03-12 21:22:00,
2013-03-12 17:24:00,53.5,35.8,29.86,North,355,10.0,14.0,51,0.00,,SKC,0.81,255.00,VWS V14.01,2013-03-12 21:24:00,
2013-03-12 17:26:00,53.4,35.2,29.86,NNW,331,16.0,16.0,50,0.00,,SKC,0.81,278.00,VWS V14.01,2013-03-12 21:26:00,
2013-03-12 17:27:00,53.3,35.2,29.86,NW,319,11.0,16.0,50,0.00,,SKC,0.81,227.00,VWS V14.01,2013-03-12 21:27:00,
2013-03-12 17:28:00,53.3,35.7,29.86,NNW,338,7.0,16.0,51,0.00,,SKC,0.81,200.00,VWS V14.01,2013-03-12 21:28:00,
2013-03-12 17:29:00,53.3,35.7,29.86,NNW,339,8.0,16.0,51,0.00,,SKC,0.81,160.00,VWS V14.01,2013-03-12 21:29:00,
2013-03-12 17:31:00,53.2,35.6,29.86,NNE,28,12.0,16.0,51,0.00,,SKC,0.81,214.00,VWS V14.01,2013-03-12 21:31:00,
2013-03-12 17:33:00,53.3,36.1,29.86,North,351,6.0,13.0,52,0.00,,SKC,0.81,193.00,VWS V14.01,2013-03-12 21:33:00,
2013-03-12 17:34:00,53.3,36.1,29.86,NW,321,2.0,13.0,52,0.00,,SKC,0.81,193.00,VWS V14.01,2013-03-12 21:34:00,
2013-03-12 17:36:00,53.5,35.8,29.86,NNW,329,3.0,13.0,51,0.00,,SKC,0.81,213.00,VWS V14.01,2013-03-12 21:36:00,
2013-03-12 17:38:00,53.7,36.5,29.87,WSW,255,7.0,13.0,52,0.00,,SKC,0.81,155.00,VWS V14.01,2013-03-12 21:38:00,
2013-03-12 17:39:00,53.7,35.0,29.86,WSW,238,6.0,13.0,49,0.00,,SKC,0.81,151.00,VWS V14.01,2013-03-12 21:39:00,
2013-03-12 17:41:00,53.6,34.9,29.86,WNW,291,7.0,13.0,49,0.00,,SKC,0.81,121.00,VWS V14.01,2013-03-12 21:41:00,
2013-03-12 17:43:00,53.5,34.8,29.86,NW,315,3.0,13.0,49,0.00,,SKC,0.81,95.00,VWS V14.01,2013-03-12 21:43:00,
2013-03-12 17:44:00,53.5,34.8,29.87,SW,232,8.0,13.0,49,0.00,,SKC,0.81,130.00,VWS V14.01,2013-03-12 21:44:00,
2013-03-12 17:46:00,53.3,35.2,29.86,WNW,289,8.0,13.0,50,0.00,,SKC,0.81,83.00,VWS V14.01,2013-03-12 21:46:00,
2013-03-12 17:49:00,53.2,35.1,29.87,WSW,241,3.0,13.0,50,0.00,,SKC,0.81,104.00,VWS V14.01,2013-03-12 21:49:00,
2013-03-12 17:51:00,53.2,34.5,29.86,West,278,4.0,13.0,49,0.00,,SKC,0.81,62.00,VWS V14.01,2013-03-12 21:51:00,
2013-03-12 17:54:00,53.1,34.5,29.86,WSW,242,1.0,13.0,49,0.00,,SKC,0.81,53.00,VWS V14.01,2013-03-12 21:54:00,
2013-03-12 17:56:00,53.0,34.4,29.87,West,276,5.0,13.0,49,0.00,,SKC,0.81,102.00,VWS V14.01,2013-03-12 21:56:00,
2013-03-12 17:59:00,52.8,34.2,29.87,SW,221,6.0,13.0,49,0.00,,SKC,0.81,74.00,VWS V14.01,2013-03-12 21:59:00,
2013-03-12 18:00:00,52.7,34.1,29.87,SW,234,3.0,13.0,49,0.00,,SKC,0.81,74.00,VWS V14.01,2013-03-12 22:00:00,
2013-03-12 18:02:00,52.7,34.6,29.87,WSW,238,5.0,8.0,50,0.00,,SKC,0.81,98.00,VWS V14.01,2013-03-12 22:02:00,
2013-03-12 18:04:00,52.5,33.9,29.88,WSW,257,6.0,8.0,49,0.00,,SKC,0.81,81.00,VWS V14.01,2013-03-12 22:04:00,
2013-03-12 18:05:00,52.4,34.3,29.87,SW,224,6.0,8.0,50,0.00,,SKC,0.81,67.00,VWS V14.01,2013-03-12 22:05:00,
2013-03-12 18:07:00,52.4,34.8,29.88,WNW,297,2.0,11.0,51,0.00,,SKC,0.81,62.00,VWS V14.01,2013-03-12 22:07:00,
2013-03-12 18:09:00,52.4,34.8,29.87,West,269,7.0,11.0,51,0.00,,SKC,0.81,77.00,VWS V14.01,2013-03-12 22:09:00,
2013-03-12 18:10:00,52.4,34.3,29.87,WSW,254,4.0,11.0,50,0.00,,SKC,0.81,77.00,VWS V14.01,2013-03-12 22:10:00,
2013-03-12 18:12:00,52.4,34.3,29.88,SW,232,5.0,11.0,50,0.00,,SKC,0.81,132.00,VWS V14.01,2013-03-12 22:12:00,
2013-03-12 18:14:00,52.4,34.3,29.88,NNW,332,5.0,11.0,50,0.00,,SKC,0.81,165.00,VWS V14.01,2013-03-12 22:14:00,
2013-03-12 18:15:00,52.4,34.3,29.88,WNW,299,5.0,11.0,50,0.00,,SKC,0.81,155.00,VWS V14.01,2013-03-12 22:15:00,
2013-03-12 18:18:00,52.4,34.3,29.88,West,269,2.0,11.0,50,0.00,,SKC,0.81,206.00,VWS V14.01,2013-03-12 22:18:00,
2013-03-12 18:19:00,52.4,34.3,29.88,West,259,6.0,11.0,50,0.00,,SKC,0.81,128.00,VWS V14.01,2013-03-12 22:19:00,
2013-03-12 18:20:00,52.4,34.3,29.88,West,268,5.0,11.0,50,0.00,,SKC,0.81,77.00,VWS V14.01,2013-03-12 22:20:00,
2013-03-12 18:23:00,52.3,34.2,29.88,NW,304,5.0,11.0,50,0.00,,SKC,0.81,114.00,VWS V14.01,2013-03-12 22:23:00,
2013-03-12 18:24:00,52.3,34.2,29.88,NNW,332,7.0,11.0,50,0.00,,SKC,0.81,90.00,VWS V14.01,2013-03-12 22:24:00,
2013-03-12 18:25:00,52.3,34.2,29.88,NNW,348,6.0,11.0,50,0.00,,SKC,0.81,76.00,VWS V14.01,2013-03-12 22:25:00,
2013-03-12 18:26:00,52.3,34.2,29.88,North,10,3.0,11.0,50,0.00,,SKC,0.81,65.00,VWS V14.01,2013-03-12 22:26:00,
2013-03-12 18:28:00,52.3,34.2,29.88,North,360,6.0,11.0,50,0.00,,SKC,0.81,111.00,VWS V14.01,2013-03-12 22:28:00,
2013-03-12 18:29:00,52.2,34.1,29.88,NNW,333,7.0,11.0,50,0.00,,SKC,0.81,107.00,VWS V14.01,2013-03-12 22:29:00,
2013-03-12 18:30:00,52.2,34.1,29.88,North,355,8.0,11.0,50,0.00,,SKC,0.81,121.00,VWS V14.01,2013-03-12 22:30:00,
2013-03-12 18:31:00,52.1,34.0,29.88,NNW,347,7.0,11.0,50,0.00,,SKC,0.81,141.00,VWS V14.01,2013-03-12 22:31:00,
2013-03-12 18:33:00,52.0,34.0,29.88,NNW,331,5.0,8.0,50,0.00,,SKC,0.81,93.00,VWS V14.01,2013-03-12 22:33:00,
2013-03-12 18:34:00,52.0,34.0,29.88,North,355,2.0,8.0,50,0.00,,SKC,0.81,35.00,VWS V14.01,2013-03-12 22:34:00,
2013-03-12 18:35:00,52.0,34.0,29.88,North,350,5.0,8.0,50,0.00,,SKC,0.81,39.00,VWS V14.01,2013-03-12 22:35:00,
2013-03-12 18:37:00,51.9,33.9,29.88,NNW,339,4.0,8.0,50,0.00,,SKC,0.81,83.00,VWS V14.01,2013-03-12 22:37:00,
2013-03-12 18:38:00,51.8,34.3,29.89,West,263,0.0,8.0,51,0.00,,SKC,0.81,77.00,VWS V14.01,2013-03-12 22:38:00,
2013-03-12 18:40:00,51.8,34.3,29.89,West,279,2.0,8.0,51,0.00,,SKC,0.81,30.00,VWS V14.01,2013-03-12 22:40:00,
2013-03-12 18:42:00,51.8,34.3,29.89,WNW,298,4.0,8.0,51,0.00,,SKC,0.81,33.00,VWS V14.01,2013-03-12 22:42:00,
2013-03-12 18:43:00,51.7,34.2,29.89,NW,311,0.0,8.0,51,0.00,,SKC,0.81,53.00,VWS V14.01,2013-03-12 22:43:00,
2013-03-12 18:45:00,51.7,34.2,29.89,NNW,346,6.0,8.0,51,0.00,,SKC,0.81,69.00,VWS V14.01,2013-03-12 22:45:00,
2013-03-12 18:47:00,51.6,33.6,29.89,North,5,8.0,9.0,50,0.00,,SKC,0.81,35.00,VWS V14.01,2013-03-12 22:47:00,
2013-03-12 18:48:00,51.5,33.5,29.89,NW,311,8.0,11.0,50,0.00,,SKC,0.81,44.00,VWS V14.01,2013-03-12 22:48:00,
2013-03-12 18:50:00,51.4,33.4,29.89,NNW,333,7.0,11.0,50,0.00,,SKC,0.81,42.00,VWS V14.01,2013-03-12 22:50:00,
2013-03-12 18:53:00,51.3,33.3,29.89,NNE,17,5.0,11.0,50,0.00,,SKC,0.81,28.00,VWS V14.01,2013-03-12 22:53:00,
2013-03-12 18:54:00,51.3,33.3,29.89,NNW,339,5.0,11.0,50,0.00,,SKC,0.81,23.00,VWS V14.01,2013-03-12 22:54:00,
2013-03-12 18:55:00,51.2,33.2,29.89,NNW,329,6.0,11.0,50,0.00,,SKC,0.81,25.00,VWS V14.01,2013-03-12 22:55:00,
2013-03-12 18:56:00,51.1,33.1,29.89,NNE,12,9.0,11.0,50,0.00,,SKC,0.81,21.00,VWS V14.01,2013-03-12 22:56:00,
2013-03-12 18:58:00,51.0,33.0,29.89,NNW,345,7.0,11.0,50,0.00,,SKC,0.81,21.00,VWS V14.01,2013-03-12 22:58:00,
2013-03-12 18:59:00,50.9,32.9,29.90,NW,317,1.0,11.0,50,0.00,,SKC,0.81,23.00,VWS V14.01,2013-03-12 22:59:00,
2013-03-12 19:00:00,50.8,33.3,29.90,NNW,337,4.0,11.0,51,0.00,,SKC,0.81,21.00,VWS V14.01,2013-03-12 23:00:00,
2013-03-12 19:02:00,50.7,33.2,29.90,NW,321,3.0,5.0,51,0.00,,SKC,0.81,19.00,VWS V14.01,2013-03-12 23:02:00,
2013-03-12 19:03:00,50.7,33.2,29.90,NNW,331,3.0,6.0,51,0.00,,SKC,0.81,19.00,VWS V14.01,2013-03-12 23:03:00,
2013-03-12 19:04:00,50.6,33.2,29.90,NNW,331,2.0,6.0,51,0.00,,SKC,0.81,18.00,VWS V14.01,2013-03-12 23:04:00,
2013-03-12 19:05:00,50.6,33.2,29.90,NNW,343,2.0,6.0,51,0.00,,SKC,0.81,16.00,VWS V14.01,2013-03-12 23:05:00,
2013-03-12 19:07:00,50.5,33.1,29.90,NNW,330,5.0,6.0,51,0.00,,SKC,0.81,14.00,VWS V14.01,2013-03-12 23:07:00,
2013-03-12 19:08:00,50.5,33.1,29.90,WNW,287,3.0,6.0,51,0.00,,SKC,0.81,14.00,VWS V14.01,2013-03-12 23:08:00,
2013-03-12 19:09:00,50.4,33.0,29.90,West,269,2.0,6.0,51,0.00,,SKC,0.81,12.00,VWS V14.01,2013-03-12 23:09:00,
2013-03-12 19:10:00,50.4,33.0,29.90,NW,324,1.0,6.0,51,0.00,,SKC,0.81,12.00,VWS V14.01,2013-03-12 23:10:00,
2013-03-12 19:12:00,50.3,33.4,29.90,WNW,286,0.0,6.0,52,0.00,,SKC,0.81,12.00,VWS V14.01,2013-03-12 23:12:00,
2013-03-12 19:13:00,50.3,33.8,29.90,WNW,286,0.0,6.0,53,0.00,,SKC,0.81,11.00,VWS V14.01,2013-03-12 23:13:00,
2013-03-12 19:15:00,50.2,33.7,29.90,WNW,286,2.0,6.0,53,0.00,,SKC,0.81,11.00,VWS V14.01,2013-03-12 23:15:00,
2013-03-12 19:17:00,50.1,33.7,29.91,WNW,286,0.0,6.0,53,0.00,,SKC,0.81,9.00,VWS V14.01,2013-03-12 23:17:00,
2013-03-12 19:18:00,50.1,33.7,29.91,West,265,3.0,6.0,53,0.00,,SKC,0.81,9.00,VWS V14.01,2013-03-12 23:18:00,
2013-03-12 19:20:00,50.0,33.6,29.91,NW,313,2.0,6.0,53,0.00,,SKC,0.81,7.00,VWS V14.01,2013-03-12 23:20:00,
2013-03-12 19:22:00,49.9,33.5,29.91,NW,321,1.0,6.0,53,0.00,,SKC,0.81,5.00,VWS V14.01,2013-03-12 23:22:00,
2013-03-12 19:23:00,49.8,33.4,29.91,NNW,344,4.0,6.0,53,0.00,,SKC,0.81,5.00,VWS V14.01,2013-03-12 23:23:00,
2013-03-12 19:25:00,49.7,33.8,29.91,NNW,344,0.0,6.0,54,0.00,,SKC,0.81,5.00,VWS V14.01,2013-03-12 23:25:00,
2013-03-12 19:28:00,49.6,33.2,29.91,NNW,344,1.0,6.0,53,0.00,,SKC,0.81,0.00,VWS V14.01,2013-03-12 23:28:00,
2013-03-12 19:30:00,49.5,33.1,29.91,NNW,344,1.0,6.0,53,0.00,,SKC,0.81,0.00,VWS V14.01,2013-03-12 23:30:00,
2013-03-12 19:33:00,49.4,33.0,29.91,WNW,298,6.0,6.0,53,0.00,,SKC,0.81,0.00,VWS V14.01,2013-03-12 23:33:00,
2013-03-12 19:35:00,49.3,32.9,29.91,NW,326,6.0,7.0,53,0.00,,SKC,0.81,0.00,VWS V14.01,2013-03-12 23:35:00,
2013-03-12 19:38:00,49.2,33.3,29.92,WNW,298,4.0,8.0,54,0.00,,SKC,0.81,0.00,VWS V14.01,2013-03-12 23:38:00,
2013-03-12 19:40:00,49.1,33.2,29.92,NNW,337,4.0,8.0,54,0.00,,SKC,0.81,0.00,VWS V14.01,2013-03-12 23:40:00,
2013-03-12 19:43:00,49.0,33.1,29.92,NW,319,3.0,8.0,54,0.00,,SKC,0.81,0.00,VWS V14.01,2013-03-12 23:43:00,
2013-03-12 19:44:00,49.0,33.1,29.92,North,355,7.0,8.0,54,0.00,,SKC,0.81,0.00,VWS V14.01,2013-03-12 23:44:00,
2013-03-12 19:45:00,49.0,32.6,29.92,West,272,10.0,10.0,53,0.00,,SKC,0.81,0.00,VWS V14.01,2013-03-12 23:45:00,
2013-03-12 19:49:00,48.9,33.0,29.92,WNW,299,5.0,10.0,54,0.00,,SKC,0.81,0.00,VWS V14.01,2013-03-12 23:49:00,
2013-03-12 19:50:00,48.9,33.0,29.92,West,271,2.0,10.0,54,0.00,,SKC,0.81,0.00,VWS V14.01,2013-03-12 23:50:00,
2013-03-12 19:51:00,48.9,33.0,29.92,NNW,347,6.0,10.0,54,0.00,,SKC,0.81,0.00,VWS V14.01,2013-03-12 23:51:00,
2013-03-12 19:54:00,48.8,32.4,29.92,WSW,242,3.0,10.0,53,0.00,,SKC,0.81,0.00,VWS V14.01,2013-03-12 23:54:00,
2013-03-12 19:55:00,48.8,32.9,29.92,WNW,290,4.0,10.0,54,0.00,,SKC,0.81,0.00,VWS V14.01,2013-03-12 23:55:00,
2013-03-12 19:56:00,48.8,32.9,29.92,WNW,292,3.0,10.0,54,0.00,,SKC,0.81,0.00,VWS V14.01,2013-03-12 23:56:00,
2013-03-12 19:59:00,48.8,32.9,29.93,NNW,346,4.0,10.0,54,0.00,,SKC,0.81,0.00,VWS V14.01,2013-03-12 23:59:00,
2013-03-12 20:01:00,48.7,32.8,29.93,NW,317,1.0,10.0,54,0.00,,SKC,0.81,0.00,VWS V14.01,2013-03-13 00:01:00,
2013-03-12 20:04:00,48.7,32.8,29.93,NW,317,0.0,9.0,54,0.00,,SKC,0.81,0.00,VWS V14.01,2013-03-13 00:04:00,
2013-03-12 20:06:00,48.6,32.7,29.93,NW,309,0.0,9.0,54,0.00,,SKC,0.81,0.00,VWS V14.01,2013-03-13 00:06:00,
2013-03-12 20:09:00,48.5,32.6,29.93,NNW,333,3.0,9.0,54,0.00,,SKC,0.81,0.00,VWS V14.01,2013-03-13 00:09:00,
2013-03-12 20:11:00,48.4,32.5,29.93,NW,318,6.0,9.0,54,0.00,,SKC,0.81,0.00,VWS V14.01,2013-03-13 00:11:00,
2013-03-12 20:12:00,48.4,32.5,29.93,NNW,327,4.0,9.0,54,0.00,,SKC,0.81,0.00,VWS V14.01,2013-03-13 00:12:00,
2013-03-12 20:14:00,48.3,32.9,29.93,NNW,347,5.0,9.0,55,0.00,,SKC,0.81,0.00,VWS V14.01,2013-03-13 00:14:00,
2013-03-12 20:15:00,48.3,32.9,29.93,North,360,2.0,9.0,55,0.00,,SKC,0.81,0.00,VWS V14.01,2013-03-13 00:15:00,
2013-03-12 20:17:00,48.2,32.8,29.93,WSW,254,0.0,9.0,55,0.00,,SKC,0.81,0.00,VWS V14.01,2013-03-13 00:17:00,
2013-03-12 20:20:00,48.1,33.2,29.93,North,349,4.0,9.0,56,0.00,,SKC,0.81,0.00,VWS V14.01,2013-03-13 00:20:00,
2013-03-12 20:22:00,47.9,32.5,29.94,WNW,303,10.0,12.0,55,0.00,,SKC,0.81,0.00,VWS V14.01,2013-03-13 00:22:00,
2013-03-12 20:25:00,47.9,32.5,29.94,NNW,336,7.0,12.0,55,0.00,,SKC,0.81,0.00,VWS V14.01,2013-03-13 00:25:00,
2013-03-12 20:27:00,48.0,32.6,29.94,North,350,6.0,12.0,55,0.00,,SKC,0.81,0.00,VWS V14.01,2013-03-13 00:27:00,
2013-03-12 20:28:00,48.0,32.6,29.94,NNW,332,5.0,12.0,55,0.00,,SKC,0.81,0.00,VWS V14.01,2013-03-13 00:28:00,
2013-03-12 20:30:00,47.9,32.5,29.94,NNW,342,5.0,12.0,55,0.00,,SKC,0.81,0.00,VWS V14.01,2013-03-13 00:30:00,
2013-03-12 20:32:00,47.9,33.0,29.94,North,351,4.0,4.0,56,0.00,,SKC,0.81,0.00,VWS V14.01,2013-03-13 00:32:00,
2013-03-12 20:33:00,47.8,32.9,29.94,NNW,346,7.0,8.0,56,0.00,,SKC,0.81,0.00,VWS V14.01,2013-03-13 00:33:00,
2013-03-12 20:35:00,47.8,32.9,29.94,NNW,344,5.0,13.0,56,0.00,,SKC,0.81,0.00,VWS V14.01,2013-03-13 00:35:00,
2013-03-12 20:37:00,47.7,32.8,29.94,NNW,343,10.0,13.0,56,0.00,,SKC,0.81,0.00,VWS V14.01,2013-03-13 00:37:00,
2013-03-12 20:38:00,47.7,33.2,29.94,NNW,337,9.0,13.0,57,0.00,,SKC,0.81,0.00,VWS V14.01,2013-03-13 00:38:00,
2013-03-12 20:40:00,47.7,33.2,29.95,NW,311,6.0,13.0,57,0.00,,SKC,0.81,0.00,VWS V14.01,2013-03-13 00:40:00,
2013-03-12 20:41:00,47.6,33.1,29.95,NNW,346,6.0,13.0,57,0.00,,SKC,0.81,0.00,VWS V14.01,2013-03-13 00:41:00,
2013-03-12 20:42:00,47.6,33.1,29.95,NNW,333,5.0,13.0,57,0.00,,SKC,0.81,0.00,VWS V14.01,2013-03-13 00:42:00,
2013-03-12 20:43:00,47.6,33.1,29.95,NW,325,7.0,13.0,57,0.00,,SKC,0.81,0.00,VWS V14.01,2013-03-13 00:43:00,
2013-03-12 20:45:00,47.4,33.0,29.95,NNW,346,10.0,13.0,57,0.00,,SKC,0.81,0.00,VWS V14.01,2013-03-13 00:45:00,
2013-03-12 20:46:00,47.4,33.0,29.95,NNW,336,10.0,13.0,57,0.00,,SKC,0.81,0.00,VWS V14.01,2013-03-13 00:46:00,
2013-03-12 20:47:00,47.3,33.3,29.95,NNW,340,8.0,13.0,58,0.00,,SKC,0.81,0.00,VWS V14.01,2013-03-13 00:47:00,
2013-03-12 20:48:00,47.2,33.2,29.95,NNW,329,6.0,13.0,58,0.00,,SKC,0.81,0.00,VWS V14.01,2013-03-13 00:48:00,
2013-03-12 20:51:00,47.1,33.1,29.95,North,355,4.0,13.0,58,0.00,,SKC,0.81,0.00,VWS V14.01,2013-03-13 00:51:00,
2013-03-12 20:52:00,47.0,33.4,29.95,NW,324,4.0,13.0,59,0.00,,SKC,0.81,0.00,VWS V14.01,2013-03-13 00:52:00,
2013-03-12 20:53:00,46.9,33.3,29.95,North,360,6.0,13.0,59,0.00,,SKC,0.81,0.00,VWS V14.01,2013-03-13 00:53:00,
2013-03-12 20:56:00,46.7,33.2,29.95,North,355,5.0,13.0,59,0.00,,SKC,0.81,0.00,VWS V14.01,2013-03-13 00:56:00,
2013-03-12 20:57:00,46.7,33.2,29.95,NNW,335,5.0,13.0,59,0.00,,SKC,0.81,0.00,VWS V14.01,2013-03-13 00:57:00,
2013-03-12 20:58:00,46.7,33.2,29.96,NNW,346,5.0,13.0,59,0.00,,SKC,0.81,0.00,VWS V14.01,2013-03-13 00:58:00,
2013-03-12 20:59:00,46.6,33.0,29.96,North,350,5.0,13.0,59,0.00,,SKC,0.81,0.00,VWS V14.01,2013-03-13 00:59:00,
2013-03-12 21:02:00,46.5,33.4,29.96,NNW,333,5.0,8.0,60,0.00,,SKC,0.81,0.00,VWS V14.01,2013-03-13 01:02:00,
2013-03-12 21:03:00,46.5,33.4,29.96,NNW,340,5.0,8.0,60,0.00,,SKC,0.81,0.00,VWS V14.01,2013-03-13 01:03:00,
2013-03-12 21:04:00,46.3,33.2,29.96,NNW,342,7.0,10.0,60,0.00,,SKC,0.81,0.00,VWS V14.01,2013-03-13 01:04:00,
2013-03-12 21:07:00,46.2,33.1,29.96,North,350,4.0,10.0,60,0.00,,SKC,0.81,0.00,VWS V14.01,2013-03-13 01:07:00,
2013-03-12 21:08:00,46.2,33.1,29.96,North,350,4.0,10.0,60,0.00,,SKC,0.81,0.00,VWS V14.01,2013-03-13 01:08:00,
2013-03-12 21:09:00,46.1,33.0,29.96,NNE,19,5.0,10.0,60,0.00,,SKC,0.81,0.00,VWS V14.01,2013-03-13 01:09:00,
2013-03-12 21:13:00,45.9,33.2,29.96,North,355,4.0,10.0,61,0.00,,SKC,0.81,0.00,VWS V14.01,2013-03-13 01:13:00,
2013-03-12 21:14:00,45.8,33.1,29.96,NNW,329,9.0,10.0,61,0.00,,SKC,0.81,0.00,VWS V14.01,2013-03-13 01:14:00,
2013-03-12 21:18:00,45.6,32.9,29.96,North,355,11.0,15.0,61,0.00,,SKC,0.81,0.00,VWS V14.01,2013-03-13 01:18:00,
2013-03-12 21:19:00,45.5,32.8,29.96,North,5,6.0,15.0,61,0.00,,SKC,0.81,0.00,VWS V14.01,2013-03-13 01:19:00,
2013-03-12 21:23:00,45.5,32.8,29.96,NNW,338,8.0,15.0,61,0.00,,SKC,0.81,0.00,VWS V14.01,2013-03-13 01:23:00,
2013-03-12 21:24:00,45.4,32.8,29.96,NNW,342,7.0,15.0,61,0.00,,SKC,0.81,0.00,VWS V14.01,2013-03-13 01:24:00,
2013-03-12 21:25:00,45.4,32.8,29.96,NNW,347,5.0,15.0,61,0.00,,SKC,0.81,0.00,VWS V14.01,2013-03-13 01:25:00,
2013-03-12 21:28:00,45.2,32.6,29.96,North,355,8.0,15.0,61,0.00,,SKC,0.81,0.00,VWS V14.01,2013-03-13 01:28:00,
2013-03-12 21:29:00,45.1,32.5,29.96,North,351,6.0,15.0,61,0.00,,SKC,0.81,0.00,VWS V14.01,2013-03-13 01:29:00,
2013-03-12 21:30:00,45.1,32.5,29.97,NNW,346,2.0,15.0,61,0.00,,SKC,0.81,0.00,VWS V14.01,2013-03-13 01:30:00,
2013-03-12 21:33:00,45.0,32.4,29.97,NNW,335,10.0,10.0,61,0.00,,SKC,0.81,0.00,VWS V14.01,2013-03-13 01:33:00,
2013-03-12 21:34:00,45.0,32.4,29.97,North,350,6.0,10.0,61,0.00,,SKC,0.81,0.00,VWS V14.01,2013-03-13 01:34:00,
2013-03-12 21:35:00,44.9,32.7,29.97,NW,312,7.0,10.0,62,0.00,,SKC,0.81,0.00,VWS V14.01,2013-03-13 01:35:00,
2013-03-12 21:39:00,44.8,32.6,29.97,NNW,331,7.0,10.0,62,0.00,,SKC,0.81,0.00,VWS V14.01,2013-03-13 01:39:00,
2013-03-12 21:40:00,44.7,32.5,29.97,North,355,7.0,10.0,62,0.00,,SKC,0.81,0.00,VWS V14.01,2013-03-13 01:40:00,
2013-03-12 21:44:00,44.6,32.0,29.97,North,355,10.0,13.0,61,0.00,,SKC,0.81,0.00,VWS V14.01,2013-03-13 01:44:00,
2013-03-12 21:45:00,44.6,32.0,29.97,North,360,8.0,13.0,61,0.00,,SKC,0.81,0.00,VWS V14.01,2013-03-13 01:45:00,
2013-03-12 21:49:00,44.5,31.9,29.98,NNW,330,7.0,13.0,61,0.00,,SKC,0.81,0.00,VWS V14.01,2013-03-13 01:49:00,
2013-03-12 21:50:00,44.4,32.2,29.98,NNW,333,10.0,13.0,62,0.00,,SKC,0.81,0.00,VWS V14.01,2013-03-13 01:50:00,
2013-03-12 21:54:00,44.3,32.1,29.98,North,355,6.0,13.0,62,0.00,,SKC,0.81,0.00,VWS V14.01,2013-03-13 01:54:00,
2013-03-12 21:55:00,44.2,32.0,29.98,NNW,342,7.0,13.0,62,0.00,,SKC,0.81,0.00,VWS V14.01,2013-03-13 01:55:00,
2013-03-12 21:56:00,44.2,32.0,29.98,North,349,5.0,13.0,62,0.00,,SKC,0.81,0.00,VWS V14.01,2013-03-13 01:56:00,
2013-03-12 21:59:00,44.0,32.2,29.98,NNW,347,5.0,13.0,63,0.00,,SKC,0.81,0.00,VWS V14.01,2013-03-13 01:59:00,
2013-03-12 22:00:00,44.0,32.2,29.98,NNW,347,5.0,13.0,63,0.00,,SKC,0.81,0.00,VWS V14.01,2013-03-13 02:00:00,
2013-03-12 22:02:00,43.9,32.1,29.98,NNW,327,7.0,9.0,63,0.00,,SKC,0.81,0.00,VWS V14.01,2013-03-13 02:02:00,
2013-03-12 22:05:00,43.8,31.6,29.98,NNW,344,8.0,10.0,62,0.00,,SKC,0.81,0.00,VWS V14.01,2013-03-13 02:05:00,
2013-03-12 22:06:00,43.8,31.6,29.98,NNW,331,7.0,10.0,62,0.00,,SKC,0.81,0.00,VWS V14.01,2013-03-13 02:06:00,
2013-03-12 22:07:00,43.7,31.5,29.98,NW,323,8.0,10.0,62,0.00,,SKC,0.81,0.00,VWS V14.01,2013-03-13 02:07:00,
2013-03-12 22:10:00,43.7,31.5,29.98,NNW,343,9.0,11.0,62,0.00,,SKC,0.81,0.00,VWS V14.01,2013-03-13 02:10:00,
2013-03-12 22:11:00,43.6,31.5,29.98,NNW,345,7.0,11.0,62,0.00,,SKC,0.81,0.00,VWS V14.01,2013-03-13 02:11:00,
2013-03-12 22:12:00,43.6,31.5,29.98,NW,319,8.0,11.0,62,0.00,,SKC,0.81,0.00,VWS V14.01,2013-03-13 02:12:00,
2013-03-12 22:15:00,43.6,31.5,29.98,NNW,343,4.0,11.0,62,0.00,,SKC,0.81,0.00,VWS V14.01,2013-03-13 02:15:00,
2013-03-12 22:16:00,43.6,31.5,29.98,NNW,339,6.0,11.0,62,0.00,,SKC,0.81,0.00,VWS V14.01,2013-03-13 02:16:00,
2013-03-12 22:17:00,43.5,31.4,29.98,NNW,340,10.0,11.0,62,0.00,,SKC,0.81,0.00,VWS V14.01,2013-03-13 02:17:00,
2013-03-12 22:18:00,43.5,31.4,29.98,NNW,333,7.0,11.0,62,0.00,,SKC,0.81,0.00,VWS V14.01,2013-03-13 02:18:00,
2013-03-12 22:20:00,43.4,31.3,29.99,NNW,340,7.0,11.0,62,0.00,,SKC,0.81,0.00,VWS V14.01,2013-03-13 02:20:00,
2013-03-12 22:21:00,43.4,31.3,29.99,North,355,6.0,11.0,62,0.00,,SKC,0.81,0.00,VWS V14.01,2013-03-13 02:21:00,
2013-03-12 22:22:00,43.3,31.6,29.99,NNW,344,6.0,11.0,63,0.00,,SKC,0.81,0.00,VWS V14.01,2013-03-13 02:22:00,
2013-03-12 22:26:00,43.2,31.5,29.99,NNW,347,5.0,11.0,63,0.00,,SKC,0.81,0.00,VWS V14.01,2013-03-13 02:26:00,
2013-03-12 22:27:00,43.1,31.4,29.99,NNW,344,5.0,11.0,63,0.00,,SKC,0.81,0.00,VWS V14.01,2013-03-13 02:27:00,
2013-03-12 22:28:00,43.1,31.4,29.99,North,360,5.0,11.0,63,0.00,,SKC,0.81,0.00,VWS V14.01,2013-03-13 02:28:00,
2013-03-12 22:31:00,43.0,31.3,29.99,NNW,343,5.0,11.0,63,0.00,,SKC,0.81,0.00,VWS V14.01,2013-03-13 02:31:00,
2013-03-12 22:33:00,42.9,31.6,29.99,NNW,342,3.0,6.0,64,0.00,,SKC,0.81,0.00,VWS V14.01,2013-03-13 02:33:00,
2013-03-12 22:36:00,42.7,31.4,29.99,North,349,6.0,6.0,64,0.00,,SKC,0.81,0.00,VWS V14.01,2013-03-13 02:36:00,
2013-03-12 22:38:00,42.6,31.3,29.99,North,5,6.0,8.0,64,0.00,,SKC,0.81,0.00,VWS V14.01,2013-03-13 02:38:00,
2013-03-12 22:41:00,42.7,31.0,29.99,NNW,341,6.0,12.0,63,0.00,,SKC,0.81,0.00,VWS V14.01,2013-03-13 02:41:00,
2013-03-12 22:42:00,42.7,31.0,29.99,NNW,333,5.0,12.0,63,0.00,,SKC,0.81,0.00,VWS V14.01,2013-03-13 02:42:00,
2013-03-12 22:43:00,42.7,31.0,29.99,North,350,5.0,12.0,63,0.00,,SKC,0.81,0.00,VWS V14.01,2013-03-13 02:43:00,
2013-03-12 22:44:00,42.7,31.0,29.99,NNW,348,7.0,12.0,63,0.00,,SKC,0.81,0.00,VWS V14.01,2013-03-13 02:44:00,
2013-03-12 22:46:00,42.6,30.9,29.99,NNW,331,6.0,12.0,63,0.00,,SKC,0.81,0.00,VWS V14.01,2013-03-13 02:46:00,
2013-03-12 22:47:00,42.6,30.9,29.99,North,351,4.0,12.0,63,0.00,,SKC,0.81,0.00,VWS V14.01,2013-03-13 02:47:00,
2013-03-12 22:48:00,42.6,30.9,29.99,NNW,336,6.0,12.0,63,0.00,,SKC,0.81,0.00,VWS V14.01,2013-03-13 02:48:00,
2013-03-12 22:49:00,42.6,30.9,29.99,NNW,333,6.0,12.0,63,0.00,,SKC,0.81,0.00,VWS V14.01,2013-03-13 02:49:00,
2013-03-12 22:52:00,42.6,30.9,29.99,NNW,344,4.0,12.0,63,0.00,,SKC,0.81,0.00,VWS V14.01,2013-03-13 02:52:00,
2013-03-12 22:53:00,42.5,30.8,29.99,NNW,333,5.0,12.0,63,0.00,,SKC,0.81,0.00,VWS V14.01,2013-03-13 02:53:00,
2013-03-12 22:54:00,42.5,30.8,30.00,NNW,331,5.0,12.0,63,0.00,,SKC,0.81,0.00,VWS V14.01,2013-03-13 02:54:00,
2013-03-12 22:57:00,42.5,30.8,30.00,NNW,337,3.0,12.0,63,0.00,,SKC,0.81,0.00,VWS V14.01,2013-03-13 02:57:00,
2013-03-12 22:58:00,42.5,30.8,30.00,NNW,337,3.0,12.0,63,0.00,,SKC,0.81,0.00,VWS V14.01,2013-03-13 02:58:00,
2013-03-12 22:59:00,42.4,30.7,30.00,NNW,343,4.0,12.0,63,0.00,,SKC,0.81,0.00,VWS V14.01,2013-03-13 02:59:00,
2013-03-12 23:02:00,42.3,30.6,30.00,NW,322,8.0,8.0,63,0.00,,SKC,0.81,0.00,VWS V14.01,2013-03-13 03:02:00,
2013-03-12 23:03:00,42.3,30.6,30.00,NNW,338,6.0,8.0,63,0.00,,SKC,0.81,0.00,VWS V14.01,2013-03-13 03:03:00,
2013-03-12 23:04:00,42.2,30.5,30.00,NNW,337,9.0,9.0,63,0.00,,SKC,0.81,0.00,VWS V14.01,2013-03-13 03:04:00,
2013-03-12 23:07:00,42.2,30.9,30.00,NNW,336,5.0,10.0,64,0.00,,SKC,0.81,0.00,VWS V14.01,2013-03-13 03:07:00,
2013-03-12 23:08:00,42.2,30.9,30.00,NNW,346,7.0,10.0,64,0.00,,SKC,0.81,0.00,VWS V14.01,2013-03-13 03:08:00,
2013-03-12 23:09:00,42.1,30.8,30.00,NNW,342,7.0,11.0,64,0.00,,SKC,0.81,0.00,VWS V14.01,2013-03-13 03:09:00,
2013-03-12 23:12:00,42.1,30.8,30.00,NNW,327,8.0,11.0,64,0.00,,SKC,0.81,0.00,VWS V14.01,2013-03-13 03:12:00,
2013-03-12 23:13:00,42.1,30.8,30.00,NNW,340,8.0,11.0,64,0.00,,SKC,0.81,0.00,VWS V14.01,2013-03-13 03:13:00,
2013-03-12 23:15:00,42.1,30.8,30.00,NW,325,5.0,11.0,64,0.00,,SKC,0.81,0.00,VWS V14.01,2013-03-13 03:15:00,
2013-03-12 23:17:00,42.0,30.7,30.00,NNW,334,5.0,11.0,64,0.00,,SKC,0.81,0.00,VWS V14.01,2013-03-13 03:17:00,
2013-03-12 23:18:00,42.0,30.7,30.00,NNW,344,5.0,11.0,64,0.00,,SKC,0.81,0.00,VWS V14.01,2013-03-13 03:18:00,
2013-03-12 23:19:00,42.0,30.7,30.00,North,350,11.0,11.0,64,0.00,,SKC,0.81,0.00,VWS V14.01,2013-03-13 03:19:00,
2013-03-12 23:20:00,42.0,30.7,30.00,NW,317,9.0,11.0,64,0.00,,SKC,0.81,0.00,VWS V14.01,2013-03-13 03:20:00,
2013-03-12 23:23:00,42.0,30.7,30.00,NNW,338,6.0,11.0,64,0.00,,SKC,0.81,0.00,VWS V14.01,2013-03-13 03:23:00,
2013-03-12 23:24:00,42.0,30.7,30.00,NNW,342,4.0,11.0,64,0.00,,SKC,0.81,0.00,VWS V14.01,2013-03-13 03:24:00,
2013-03-12 23:26:00,41.9,30.6,30.00,NW,325,4.0,11.0,64,0.00,,SKC,0.81,0.00,VWS V14.01,2013-03-13 03:26:00,
2013-03-12 23:28:00,41.8,30.5,29.99,NW,325,6.0,12.0,64,0.00,,SKC,0.81,0.00,VWS V14.01,2013-03-13 03:28:00,
2013-03-12 23:29:00,41.8,30.5,29.99,NNW,333,5.0,12.0,64,0.00,,SKC,0.81,0.00,VWS V14.01,2013-03-13 03:29:00,
2013-03-12 23:31:00,41.7,30.4,30.00,NW,306,5.0,6.0,64,0.00,,SKC,0.81,0.00,VWS V14.01,2013-03-13 03:31:00,
2013-03-12 23:33:00,41.6,30.3,29.99,NNW,330,9.0,10.0,64,0.00,,SKC,0.81,0.00,VWS V14.01,2013-03-13 03:33:00,
2013-03-12 23:35:00,41.6,30.3,30.00,NNW,338,7.0,10.0,64,0.00,,SKC,0.81,0.00,VWS V14.01,2013-03-13 03:35:00,
2013-03-12 23:36:00,41.6,30.7,29.99,NNW,338,3.0,10.0,65,0.00,,SKC,0.81,0.00,VWS V14.01,2013-03-13 03:36:00,
2013-03-12 23:38:00,41.6,30.7,29.99,NNW,345,4.0,10.0,65,0.00,,SKC,0.81,0.00,VWS V14.01,2013-03-13 03:38:00,
2013-03-12 23:40:00,41.5,30.6,29.99,NW,322,5.0,10.0,65,0.00,,SKC,0.81,0.00,VWS V14.01,2013-03-13 03:40:00,
2013-03-12 23:42:00,41.5,30.6,29.99,NNW,328,6.0,10.0,65,0.00,,SKC,0.81,0.00,VWS V14.01,2013-03-13 03:42:00,
2013-03-12 23:43:00,41.4,30.5,29.99,NNW,334,3.0,10.0,65,0.00,,SKC,0.81,0.00,VWS V14.01,2013-03-13 03:43:00,
2013-03-12 23:44:00,41.4,30.5,29.99,NNW,330,6.0,10.0,65,0.00,,SKC,0.81,0.00,VWS V14.01,2013-03-13 03:44:00,
2013-03-12 23:45:00,41.4,30.5,29.99,NNW,335,5.0,10.0,65,0.00,,SKC,0.81,0.00,VWS V14.01,2013-03-13 03:45:00,
2013-03-12 23:47:00,41.4,30.5,30.00,NNW,339,5.0,10.0,65,0.00,,SKC,0.81,0.00,VWS V14.01,2013-03-13 03:47:00,
2013-03-12 23:48:00,41.3,30.4,30.00,NNW,348,4.0,10.0,65,0.00,,SKC,0.81,0.00,VWS V14.01,2013-03-13 03:48:00,
2013-03-12 23:49:00,41.3,30.4,30.00,NNW,344,6.0,10.0,65,0.00,,SKC,0.81,0.00,VWS V14.01,2013-03-13 03:49:00,
2013-03-12 23:50:00,41.3,30.4,30.00,North,355,6.0,10.0,65,0.00,,SKC,0.81,0.00,VWS V14.01,2013-03-13 03:50:00,
2013-03-12 23:52:00,41.3,30.4,29.99,NNW,335,10.0,10.0,65,0.00,,SKC,0.81,0.00,VWS V14.01,2013-03-13 03:52:00,
2013-03-12 23:53:00,41.2,30.3,30.00,NNW,348,8.0,10.0,65,0.00,,SKC,0.81,0.00,VWS V14.01,2013-03-13 03:53:00,
2013-03-12 23:54:00,41.2,30.3,30.00,NNW,344,7.0,11.0,65,0.00,,SKC,0.81,0.00,VWS V14.01,2013-03-13 03:54:00,
2013-03-12 23:55:00,41.2,30.3,30.00,NW,306,5.0,11.0,65,0.00,,SKC,0.81,0.00,VWS V14.01,2013-03-13 03:55:00,
2013-03-12 23:58:00,41.2,30.3,30.00,NNW,332,5.0,11.0,65,0.00,,SKC,0.81,0.00,VWS V14.01,2013-03-13 03:58:00,
2013-03-12 23:59:00,41.2,30.3,30.00,NNW,342,6.0,11.0,65,0.00,,SKC,0.81,0.00,VWS V14.01,2013-03-13 03:59:00,